Time,TemperatureF,DewpointF,PressureIn,WindDirection,WindDirectionDegrees,WindSpeedMPH,WindSpeedGustMPH,Humidity,HourlyPrecipIn,Conditions,Clouds,dailyrainin,SolarRadiationWatts/m^2,SoftwareType,DateUTC
2013-12-26 00:00:00,72.5,71.0,30.06,NE,51,2.0,11.0,95,0.00,,FEW,0.52,0.00,VWS V14.01,2013-12-26 05:00:00,
2013-12-26 00:01:00,72.5,71.0,30.06,NE,38,4.0,11.0,95,0.00,,FEW,0.52,0.00,VWS V14.01,2013-12-26 05:01:00,
2013-12-26 00:06:00,72.6,71.1,30.06,NNE,32,4.0,7.0,95,0.00,,FEW,0.00,0.00,VWS V14.01,2013-12-26 05:06:00,
2013-12-26 00:11:00,72.6,71.1,30.06,NE,53,2.0,9.0,95,0.00,,FEW,0.00,0.00,VWS V14.01,2013-12-26 05:11:00,
2013-12-26 00:12:00,72.6,71.1,30.06,NNE,26,6.0,6.0,95,0.00,,FEW,0.00,0.00,VWS V14.01,2013-12-26 05:12:00,
2013-12-26 00:16:00,72.6,71.1,30.05,NE,45,3.0,7.0,95,0.00,,FEW,0.00,0.00,VWS V14.01,2013-12-26 05:16:00,
2013-12-26 00:17:00,72.5,71.0,30.05,NE,40,8.0,8.0,95,0.00,,FEW,0.00,0.00,VWS V14.01,2013-12-26 05:17:00,
2013-12-26 00:21:00,72.6,71.1,30.05,NE,47,7.0,9.0,95,0.00,,FEW,0.00,0.00,VWS V14.01,2013-12-26 05:21:00,
2013-12-26 00:22:00,72.6,71.1,30.05,NE,53,2.0,6.0,95,0.00,,FEW,0.00,0.00,VWS V14.01,2013-12-26 05:22:00,
2013-12-26 00:26:00,72.6,71.1,30.05,North,360,8.0,8.0,95,0.00,,FEW,0.00,0.00,VWS V14.01,2013-12-26 05:26:00,
2013-12-26 00:27:00,72.6,71.1,30.05,North,5,5.0,8.0,95,0.00,,FEW,0.00,0.00,VWS V14.01,2013-12-26 05:27:00,
2013-12-26 00:31:00,72.5,71.0,30.05,NNE,14,5.0,9.0,95,0.00,,FEW,0.00,0.00,VWS V14.01,2013-12-26 05:31:00,
2013-12-26 00:32:00,72.5,71.0,30.05,NNE,20,8.0,8.0,95,0.00,,FEW,0.00,0.00,VWS V14.01,2013-12-26 05:32:00,
2013-12-26 00:36:00,72.4,70.9,30.05,NNE,28,3.0,9.0,95,0.00,,FEW,0.00,0.00,VWS V14.01,2013-12-26 05:36:00,
2013-12-26 00:37:00,72.4,70.9,30.05,NE,39,6.0,9.0,95,0.00,,FEW,0.00,0.00,VWS V14.01,2013-12-26 05:37:00,
2013-12-26 00:41:00,72.4,70.9,30.05,NE,42,6.0,6.0,95,0.00,,FEW,0.00,0.00,VWS V14.01,2013-12-26 05:41:00,
2013-12-26 00:42:00,72.4,70.9,30.05,NNE,31,4.0,7.0,95,0.00,,FEW,0.00,0.00,VWS V14.01,2013-12-26 05:42:00,
2013-12-26 00:43:00,72.4,70.9,30.05,NE,42,4.0,7.0,95,0.00,,FEW,0.00,0.00,VWS V14.01,2013-12-26 05:43:00,
2013-12-26 00:47:00,72.5,71.0,30.05,ENE,64,1.0,7.0,95,0.00,,FEW,0.00,0.00,VWS V14.01,2013-12-26 05:47:00,
2013-12-26 00:48:00,72.5,71.0,30.05,NNW,345,5.0,7.0,95,0.00,,FEW,0.00,0.00,VWS V14.01,2013-12-26 05:48:00,
2013-12-26 00:52:00,72.5,71.0,30.05,NE,34,3.0,6.0,95,0.00,,FEW,0.00,0.00,VWS V14.01,2013-12-26 05:52:00,
2013-12-26 00:53:00,72.5,71.0,30.05,NNE,16,5.0,7.0,95,0.00,,FEW,0.00,0.00,VWS V14.01,2013-12-26 05:53:00,
2013-12-26 00:57:00,72.5,71.0,30.05,NNE,29,6.0,8.0,95,0.00,,FEW,0.00,0.00,VWS V14.01,2013-12-26 05:57:00,
2013-12-26 00:58:00,72.5,71.0,30.05,NNE,13,4.0,8.0,95,0.00,,FEW,0.00,0.00,VWS V14.01,2013-12-26 05:58:00,
2013-12-26 01:02:00,72.5,71.0,30.05,NE,40,7.0,9.0,95,0.00,,FEW,0.00,0.00,VWS V14.01,2013-12-26 06:02:00,
2013-12-26 01:03:00,72.6,71.1,30.05,NNE,24,5.0,9.0,95,0.00,,FEW,0.00,0.00,VWS V14.01,2013-12-26 06:03:00,
2013-12-26 01:04:00,72.5,71.0,30.05,NNE,22,4.0,9.0,95,0.00,,FEW,0.00,0.00,VWS V14.01,2013-12-26 06:04:00,
2013-12-26 01:07:00,72.6,71.1,30.05,NE,40,2.0,9.0,95,0.00,,FEW,0.00,0.00,VWS V14.01,2013-12-26 06:07:00,
2013-12-26 01:08:00,72.6,71.1,30.05,NNE,13,3.0,9.0,95,0.00,,FEW,0.00,0.00,VWS V14.01,2013-12-26 06:08:00,
2013-12-26 01:09:00,72.6,71.1,30.05,NNE,15,3.0,9.0,95,0.00,,FEW,0.00,0.00,VWS V14.01,2013-12-26 06:09:00,
2013-12-26 01:12:00,72.6,71.1,30.05,NE,43,4.0,5.0,95,0.00,,FEW,0.00,0.00,VWS V14.01,2013-12-26 06:12:00,
2013-12-26 01:13:00,72.7,71.2,30.05,NE,44,2.0,5.0,95,0.00,,FEW,0.00,0.00,VWS V14.01,2013-12-26 06:13:00,
2013-12-26 01:14:00,72.7,71.2,30.05,NE,44,4.0,7.0,95,0.00,,FEW,0.00,0.00,VWS V14.01,2013-12-26 06:14:00,
2013-12-26 01:17:00,72.7,71.2,30.05,NE,37,4.0,7.0,95,0.00,,FEW,0.00,0.00,VWS V14.01,2013-12-26 06:17:00,
2013-12-26 01:18:00,72.7,71.2,30.05,NE,36,5.0,7.0,95,0.00,,FEW,0.00,0.00,VWS V14.01,2013-12-26 06:18:00,
2013-12-26 01:19:00,72.8,71.3,30.05,NE,47,2.0,7.0,95,0.00,,FEW,0.00,0.00,VWS V14.01,2013-12-26 06:19:00,
2013-12-26 01:20:00,72.8,71.3,30.05,NNE,32,3.0,7.0,95,0.00,,FEW,0.00,0.00,VWS V14.01,2013-12-26 06:20:00,
2013-12-26 01:23:00,72.8,71.3,30.05,ENE,66,2.0,4.0,95,0.00,,FEW,0.00,0.00,VWS V14.01,2013-12-26 06:23:00,
2013-12-26 01:24:00,72.8,71.3,30.05,NE,43,4.0,4.0,95,0.00,,FEW,0.00,0.00,VWS V14.01,2013-12-26 06:24:00,
2013-12-26 01:25:00,72.8,71.3,30.05,ENE,57,1.0,4.0,95,0.00,,FEW,0.00,0.00,VWS V14.01,2013-12-26 06:25:00,
2013-12-26 01:28:00,72.8,71.3,30.05,ENE,57,0.0,4.0,95,0.00,,FEW,0.00,0.00,VWS V14.01,2013-12-26 06:28:00,
2013-12-26 01:29:00,72.8,71.3,30.05,ENE,67,4.0,4.0,95,0.00,,FEW,0.00,0.00,VWS V14.01,2013-12-26 06:29:00,
2013-12-26 01:30:00,72.8,71.3,30.05,NE,46,0.0,4.0,95,0.00,,FEW,0.00,0.00,VWS V14.01,2013-12-26 06:30:00,
2013-12-26 01:31:00,72.8,71.3,30.05,NE,46,0.0,4.0,95,0.00,,FEW,0.00,0.00,VWS V14.01,2013-12-26 06:31:00,
2013-12-26 01:33:00,72.8,71.3,30.05,NE,46,1.0,2.0,95,0.00,,FEW,0.00,0.00,VWS V14.01,2013-12-26 06:33:00,
2013-12-26 01:34:00,72.8,71.3,30.05,ENE,62,1.0,3.0,95,0.00,,FEW,0.00,0.00,VWS V14.01,2013-12-26 06:34:00,
2013-12-26 01:35:00,72.8,71.3,30.05,ENE,62,0.0,3.0,95,0.00,,FEW,0.00,0.00,VWS V14.01,2013-12-26 06:35:00,
2013-12-26 01:36:00,72.7,71.2,30.05,ENE,62,1.0,3.0,95,0.00,,FEW,0.00,0.00,VWS V14.01,2013-12-26 06:36:00,
2013-12-26 01:38:00,72.7,71.2,30.05,ENE,62,3.0,3.0,95,0.00,,FEW,0.00,0.00,VWS V14.01,2013-12-26 06:38:00,
2013-12-26 01:39:00,72.7,71.2,30.05,NE,38,7.0,7.0,95,0.00,,FEW,0.00,0.00,VWS V14.01,2013-12-26 06:39:00,
2013-12-26 01:40:00,72.7,71.2,30.05,NE,38,2.0,7.0,95,0.00,,FEW,0.00,0.00,VWS V14.01,2013-12-26 06:40:00,
2013-12-26 01:41:00,72.7,71.2,30.05,NNE,26,4.0,6.0,95,0.00,,FEW,0.00,0.00,VWS V14.01,2013-12-26 06:41:00,
2013-12-26 01:43:00,72.6,71.1,30.05,NE,34,4.0,6.0,95,0.00,,FEW,0.00,0.00,VWS V14.01,2013-12-26 06:43:00,
2013-12-26 01:44:00,72.6,71.1,30.05,NE,45,3.0,6.0,95,0.00,,FEW,0.00,0.00,VWS V14.01,2013-12-26 06:44:00,
2013-12-26 01:46:00,72.6,71.1,30.05,NE,35,3.0,9.0,95,0.00,,FEW,0.00,0.00,VWS V14.01,2013-12-26 06:46:00,
2013-12-26 01:47:00,72.6,71.1,30.05,NNE,32,2.0,9.0,95,0.00,,FEW,0.00,0.00,VWS V14.01,2013-12-26 06:47:00,
2013-12-26 01:48:00,72.6,71.1,30.05,NNE,30,3.0,9.0,95,0.00,,FEW,0.00,0.00,VWS V14.01,2013-12-26 06:48:00,
2013-12-26 01:49:00,72.5,71.0,30.05,NNE,24,4.0,9.0,95,0.00,,FEW,0.00,0.00,VWS V14.01,2013-12-26 06:49:00,
2013-12-26 01:51:00,72.4,70.9,30.05,NNE,20,6.0,9.0,95,0.00,,FEW,0.00,0.00,VWS V14.01,2013-12-26 06:51:00,
2013-12-26 01:52:00,72.4,70.9,30.05,NE,42,11.0,11.0,95,0.00,,FEW,0.00,0.00,VWS V14.01,2013-12-26 06:52:00,
2013-12-26 01:53:00,72.3,70.8,30.05,NNE,23,3.0,11.0,95,0.00,,FEW,0.00,0.00,VWS V14.01,2013-12-26 06:53:00,
2013-12-26 01:54:00,72.3,70.8,30.05,NE,37,6.0,11.0,95,0.00,,FEW,0.00,0.00,VWS V14.01,2013-12-26 06:54:00,
2013-12-26 01:55:00,72.2,70.7,30.05,NNE,19,5.0,11.0,95,0.00,,FEW,0.00,0.00,VWS V14.01,2013-12-26 06:55:00,
2013-12-26 01:56:00,72.2,70.7,30.05,NE,34,7.0,11.0,95,0.00,,FEW,0.00,0.00,VWS V14.01,2013-12-26 06:56:00,
2013-12-26 01:58:00,72.2,70.7,30.05,NE,51,3.0,11.0,95,0.00,,FEW,0.00,0.00,VWS V14.01,2013-12-26 06:58:00,
2013-12-26 01:59:00,72.1,70.6,30.05,NNE,16,5.0,11.0,95,0.00,,FEW,0.00,0.00,VWS V14.01,2013-12-26 06:59:00,
2013-12-26 02:00:00,72.1,70.6,30.05,NNE,26,5.0,11.0,95,0.00,,FEW,0.00,0.00,VWS V14.01,2013-12-26 07:00:00,
2013-12-26 02:02:00,72.2,70.7,30.05,NE,42,5.0,7.0,95,0.00,,FEW,0.00,0.00,VWS V14.01,2013-12-26 07:02:00,
2013-12-26 02:03:00,72.2,70.7,30.05,NE,37,2.0,9.0,95,0.00,,FEW,0.00,0.00,VWS V14.01,2013-12-26 07:03:00,
2013-12-26 02:04:00,72.2,70.7,30.05,NE,53,5.0,9.0,95,0.00,,FEW,0.00,0.00,VWS V14.01,2013-12-26 07:04:00,
2013-12-26 02:05:00,72.2,70.7,30.05,NNE,30,5.0,9.0,95,0.00,,FEW,0.00,0.00,VWS V14.01,2013-12-26 07:05:00,
2013-12-26 02:07:00,72.2,70.7,30.05,NNE,15,6.0,10.0,95,0.00,,FEW,0.00,0.00,VWS V14.01,2013-12-26 07:07:00,
2013-12-26 02:08:00,72.3,70.8,30.05,NE,40,4.0,10.0,95,0.00,,FEW,0.00,0.00,VWS V14.01,2013-12-26 07:08:00,
2013-12-26 02:09:00,72.3,70.8,30.05,NNE,24,9.0,10.0,95,0.00,,FEW,0.00,0.00,VWS V14.01,2013-12-26 07:09:00,
2013-12-26 02:10:00,72.4,70.9,30.05,NE,39,5.0,10.0,95,0.00,,FEW,0.00,0.00,VWS V14.01,2013-12-26 07:10:00,
2013-12-26 02:12:00,72.4,70.9,30.05,NE,40,3.0,6.0,95,0.02,,FEW,0.02,0.00,VWS V14.01,2013-12-26 07:12:00,
2013-12-26 02:13:00,72.4,70.9,30.05,NNE,30,3.0,6.0,95,0.02,,FEW,0.02,0.00,VWS V14.01,2013-12-26 07:13:00,
2013-12-26 02:14:00,72.4,70.9,30.05,North,5,6.0,6.0,95,0.02,,FEW,0.02,0.00,VWS V14.01,2013-12-26 07:14:00,
2013-12-26 02:15:00,72.4,70.9,30.05,NNE,19,5.0,8.0,95,0.03,,FEW,0.03,0.00,VWS V14.01,2013-12-26 07:15:00,
2013-12-26 02:18:00,72.4,70.9,30.05,NE,46,3.0,8.0,95,0.03,,FEW,0.03,0.00,VWS V14.01,2013-12-26 07:18:00,
2013-12-26 02:19:00,72.4,70.9,30.05,NE,46,1.0,8.0,95,0.03,,FEW,0.03,0.00,VWS V14.01,2013-12-26 07:19:00,
2013-12-26 02:20:00,72.4,70.9,30.05,NE,40,5.0,8.0,95,0.03,,FEW,0.03,0.00,VWS V14.01,2013-12-26 07:20:00,
2013-12-26 02:22:00,72.4,70.9,30.05,NE,42,4.0,4.0,95,0.03,,FEW,0.03,0.00,VWS V14.01,2013-12-26 07:22:00,
2013-12-26 02:23:00,72.4,70.9,30.05,NE,38,5.0,6.0,95,0.03,,FEW,0.03,0.00,VWS V14.01,2013-12-26 07:23:00,
2013-12-26 02:24:00,72.5,71.0,30.05,NE,55,4.0,10.0,95,0.03,,FEW,0.03,0.00,VWS V14.01,2013-12-26 07:24:00,
2013-12-26 02:25:00,72.4,70.9,30.05,NE,46,3.0,10.0,95,0.03,,FEW,0.03,0.00,VWS V14.01,2013-12-26 07:25:00,
2013-12-26 02:26:00,72.4,70.9,30.05,NE,43,3.0,10.0,95,0.03,,FEW,0.03,0.00,VWS V14.01,2013-12-26 07:26:00,
2013-12-26 02:27:00,72.4,70.9,30.05,North,360,4.0,10.0,95,0.03,,FEW,0.03,0.00,VWS V14.01,2013-12-26 07:27:00,
2013-12-26 02:28:00,72.4,70.9,30.05,NNE,33,3.0,10.0,95,0.03,,FEW,0.03,0.00,VWS V14.01,2013-12-26 07:28:00,
2013-12-26 02:29:00,72.4,70.9,30.05,NE,36,3.0,10.0,95,0.03,,FEW,0.03,0.00,VWS V14.01,2013-12-26 07:29:00,
2013-12-26 02:30:00,72.4,70.9,30.05,NNE,23,2.0,10.0,95,0.03,,FEW,0.03,0.00,VWS V14.01,2013-12-26 07:30:00,
2013-12-26 02:31:00,72.4,70.9,30.05,NNE,23,2.0,10.0,95,0.03,,FEW,0.03,0.00,VWS V14.01,2013-12-26 07:31:00,
2013-12-26 02:32:00,72.4,70.9,30.05,NNE,33,3.0,5.0,95,0.03,,FEW,0.03,0.00,VWS V14.01,2013-12-26 07:32:00,
2013-12-26 02:33:00,72.4,70.9,30.05,NNE,22,5.0,7.0,95,0.03,,FEW,0.03,0.00,VWS V14.01,2013-12-26 07:33:00,
2013-12-26 02:34:00,72.3,70.8,30.05,NE,34,6.0,10.0,95,0.03,,FEW,0.03,0.00,VWS V14.01,2013-12-26 07:34:00,
2013-12-26 02:36:00,72.2,70.7,30.05,NNE,30,6.0,11.0,95,0.03,,FEW,0.03,0.00,VWS V14.01,2013-12-26 07:36:00,
2013-12-26 02:37:00,72.2,70.7,30.05,NE,38,5.0,11.0,95,0.03,,FEW,0.03,0.00,VWS V14.01,2013-12-26 07:37:00,
2013-12-26 02:38:00,72.1,70.6,30.05,NNE,33,3.0,11.0,95,0.03,,FEW,0.03,0.00,VWS V14.01,2013-12-26 07:38:00,
2013-12-26 02:39:00,72.1,70.6,30.05,ENE,63,8.0,11.0,95,0.03,,FEW,0.03,0.00,VWS V14.01,2013-12-26 07:39:00,
2013-12-26 02:40:00,72.1,70.6,30.05,NE,38,7.0,11.0,95,0.03,,FEW,0.03,0.00,VWS V14.01,2013-12-26 07:40:00,
2013-12-26 02:41:00,72.1,70.6,30.05,NNE,17,1.0,11.0,95,0.03,,FEW,0.03,0.00,VWS V14.01,2013-12-26 07:41:00,
2013-12-26 02:42:00,72.1,70.6,30.05,NNE,22,0.0,6.0,95,0.03,,FEW,0.03,0.00,VWS V14.01,2013-12-26 07:42:00,
2013-12-26 02:43:00,72.1,70.6,30.05,North,5,3.0,9.0,95,0.03,,FEW,0.03,0.00,VWS V14.01,2013-12-26 07:43:00,
2013-12-26 02:44:00,72.1,70.6,30.05,North,9,4.0,9.0,95,0.03,,FEW,0.03,0.00,VWS V14.01,2013-12-26 07:44:00,
2013-12-26 02:45:00,72.2,70.7,30.05,NE,51,4.0,9.0,95,0.03,,FEW,0.03,0.00,VWS V14.01,2013-12-26 07:45:00,
2013-12-26 02:46:00,72.2,70.7,30.05,NE,39,2.0,9.0,95,0.03,,FEW,0.03,0.00,VWS V14.01,2013-12-26 07:46:00,
2013-12-26 02:47:00,72.2,70.7,30.05,NNE,28,3.0,9.0,95,0.03,,FEW,0.03,0.00,VWS V14.01,2013-12-26 07:47:00,
2013-12-26 02:48:00,72.3,70.8,30.05,NNE,22,3.0,9.0,95,0.03,,FEW,0.03,0.00,VWS V14.01,2013-12-26 07:48:00,
2013-12-26 02:49:00,72.3,70.8,30.05,NNE,27,6.0,9.0,95,0.03,,FEW,0.03,0.00,VWS V14.01,2013-12-26 07:49:00,
2013-12-26 02:50:00,72.3,70.8,30.05,NE,34,4.0,11.0,95,0.03,,FEW,0.03,0.00,VWS V14.01,2013-12-26 07:50:00,
2013-12-26 02:51:00,72.3,70.8,30.05,ENE,63,7.0,11.0,95,0.03,,FEW,0.03,0.00,VWS V14.01,2013-12-26 07:51:00,
2013-12-26 02:52:00,72.3,70.8,30.05,NNE,32,12.0,12.0,95,0.03,,FEW,0.03,0.00,VWS V14.01,2013-12-26 07:52:00,
2013-12-26 02:54:00,72.3,70.8,30.05,NNE,29,5.0,12.0,95,0.03,,FEW,0.03,0.00,VWS V14.01,2013-12-26 07:54:00,
2013-12-26 02:56:00,72.3,70.8,30.05,North,5,5.0,12.0,95,0.03,,FEW,0.03,0.00,VWS V14.01,2013-12-26 07:56:00,
2013-12-26 02:57:00,72.3,70.8,30.05,NNE,18,7.0,12.0,95,0.03,,FEW,0.03,0.00,VWS V14.01,2013-12-26 07:57:00,
2013-12-26 02:59:00,72.3,70.8,30.05,NNE,30,1.0,12.0,95,0.03,,FEW,0.03,0.00,VWS V14.01,2013-12-26 07:59:00,
2013-12-26 03:00:00,72.3,70.8,30.05,ENE,57,3.0,12.0,95,0.03,,FEW,0.03,0.00,VWS V14.01,2013-12-26 08:00:00,
2013-12-26 03:01:00,72.3,70.8,30.04,NE,48,3.0,4.0,95,0.03,,FEW,0.03,0.00,VWS V14.01,2013-12-26 08:01:00,
2013-12-26 03:02:00,72.3,70.8,30.04,NE,39,4.0,6.0,95,0.03,,FEW,0.03,0.00,VWS V14.01,2013-12-26 08:02:00,
2013-12-26 03:04:00,72.3,70.8,30.04,NNE,30,2.0,7.0,95,0.03,,FEW,0.03,0.00,VWS V14.01,2013-12-26 08:04:00,
2013-12-26 03:05:00,72.4,70.9,30.04,NE,53,6.0,7.0,95,0.03,,FEW,0.03,0.00,VWS V14.01,2013-12-26 08:05:00,
2013-12-26 03:06:00,72.4,70.9,30.04,NNE,32,5.0,7.0,95,0.03,,FEW,0.03,0.00,VWS V14.01,2013-12-26 08:06:00,
2013-12-26 03:07:00,72.4,70.9,30.04,NNE,28,4.0,7.0,95,0.03,,FEW,0.03,0.00,VWS V14.01,2013-12-26 08:07:00,
2013-12-26 03:08:00,72.4,70.9,30.04,NE,50,4.0,7.0,95,0.03,,FEW,0.03,0.00,VWS V14.01,2013-12-26 08:08:00,
2013-12-26 03:09:00,72.4,70.9,30.04,NE,35,3.0,7.0,95,0.03,,FEW,0.03,0.00,VWS V14.01,2013-12-26 08:09:00,
2013-12-26 03:10:00,72.4,70.9,30.04,NE,49,5.0,7.0,95,0.03,,FEW,0.03,0.00,VWS V14.01,2013-12-26 08:10:00,
2013-12-26 03:11:00,72.4,70.9,30.04,NNE,30,4.0,7.0,95,0.02,,FEW,0.03,0.00,VWS V14.01,2013-12-26 08:11:00,
2013-12-26 03:13:00,72.4,70.9,30.04,NE,41,3.0,7.0,95,0.02,,FEW,0.03,0.00,VWS V14.01,2013-12-26 08:13:00,
2013-12-26 03:15:00,72.4,70.9,30.04,North,349,5.0,7.0,95,0.02,,FEW,0.03,0.00,VWS V14.01,2013-12-26 08:15:00,
2013-12-26 03:16:00,72.4,70.9,30.04,NE,40,6.0,7.0,95,0.02,,FEW,0.03,0.00,VWS V14.01,2013-12-26 08:16:00,
2013-12-26 03:17:00,72.4,70.9,30.04,NE,46,5.0,7.0,95,0.02,,FEW,0.03,0.00,VWS V14.01,2013-12-26 08:17:00,
2013-12-26 03:18:00,72.4,70.9,30.04,NNE,14,2.0,8.0,95,0.02,,FEW,0.03,0.00,VWS V14.01,2013-12-26 08:18:00,
2013-12-26 03:20:00,72.4,70.9,30.04,NNE,30,1.0,8.0,95,0.02,,FEW,0.03,0.00,VWS V14.01,2013-12-26 08:20:00,
2013-12-26 03:22:00,72.5,71.0,30.04,NNE,13,5.0,6.0,95,0.00,,FEW,0.03,0.00,VWS V14.01,2013-12-26 08:22:00,
2013-12-26 03:23:00,72.5,71.0,30.04,NNE,28,5.0,6.0,95,0.00,,FEW,0.03,0.00,VWS V14.01,2013-12-26 08:23:00,
2013-12-26 03:25:00,72.5,71.0,30.04,NNE,33,5.0,6.0,95,0.00,,FEW,0.03,0.00,VWS V14.01,2013-12-26 08:25:00,
2013-12-26 03:27:00,72.5,71.0,30.04,NE,44,2.0,7.0,95,0.00,,FEW,0.03,0.00,VWS V14.01,2013-12-26 08:27:00,
2013-12-26 03:28:00,72.4,70.9,30.04,NE,35,8.0,8.0,95,0.00,,FEW,0.03,0.00,VWS V14.01,2013-12-26 08:28:00,
2013-12-26 03:30:00,72.5,71.0,30.04,NNE,28,4.0,8.0,95,0.00,,FEW,0.03,0.00,VWS V14.01,2013-12-26 08:30:00,
2013-12-26 03:31:00,72.4,70.9,30.04,North,10,2.0,8.0,95,0.00,,FEW,0.03,0.00,VWS V14.01,2013-12-26 08:31:00,
2013-12-26 03:32:00,72.4,70.9,30.04,NNE,32,3.0,7.0,95,0.00,,FEW,0.03,0.00,VWS V14.01,2013-12-26 08:32:00,
2013-12-26 03:34:00,72.4,70.9,30.04,NE,40,3.0,7.0,95,0.00,,FEW,0.03,0.00,VWS V14.01,2013-12-26 08:34:00,
2013-12-26 03:35:00,72.4,70.9,30.04,NE,34,2.0,7.0,95,0.00,,FEW,0.03,0.00,VWS V14.01,2013-12-26 08:35:00,
2013-12-26 03:36:00,72.4,70.9,30.04,NE,36,2.0,7.0,95,0.00,,FEW,0.03,0.00,VWS V14.01,2013-12-26 08:36:00,
2013-12-26 03:37:00,72.5,71.3,30.04,NE,50,2.0,7.0,96,0.00,,FEW,0.03,0.00,VWS V14.01,2013-12-26 08:37:00,
2013-12-26 03:38:00,72.5,71.3,30.04,NE,53,2.0,7.0,96,0.00,,FEW,0.03,0.00,VWS V14.01,2013-12-26 08:38:00,
2013-12-26 03:39:00,72.5,71.3,30.04,NE,35,3.0,7.0,96,0.00,,FEW,0.03,0.00,VWS V14.01,2013-12-26 08:39:00,
2013-12-26 03:40:00,72.5,71.3,30.04,NE,38,0.0,7.0,96,0.00,,FEW,0.03,0.00,VWS V14.01,2013-12-26 08:40:00,
2013-12-26 03:41:00,72.5,71.3,30.04,NE,38,0.0,7.0,96,0.00,,FEW,0.03,0.00,VWS V14.01,2013-12-26 08:41:00,
2013-12-26 03:42:00,72.6,71.4,30.04,NNE,19,3.0,4.0,96,0.00,,FEW,0.03,0.00,VWS V14.01,2013-12-26 08:42:00,
2013-12-26 03:43:00,72.6,71.4,30.04,NNE,19,1.0,4.0,96,0.00,,FEW,0.03,0.00,VWS V14.01,2013-12-26 08:43:00,
2013-12-26 03:44:00,72.6,71.1,30.04,NE,34,3.0,4.0,95,0.00,,FEW,0.03,0.00,VWS V14.01,2013-12-26 08:44:00,
2013-12-26 03:45:00,72.6,71.1,30.04,NNE,20,2.0,5.0,95,0.00,,FEW,0.03,0.00,VWS V14.01,2013-12-26 08:45:00,
2013-12-26 03:46:00,72.6,71.1,30.03,NNE,24,4.0,5.0,95,0.00,,FEW,0.03,0.00,VWS V14.01,2013-12-26 08:46:00,
2013-12-26 03:47:00,72.6,71.4,30.03,NE,51,5.0,5.0,96,0.00,,FEW,0.03,0.00,VWS V14.01,2013-12-26 08:47:00,
2013-12-26 03:48:00,72.7,71.5,30.03,NE,50,3.0,5.0,96,0.00,,FEW,0.03,0.00,VWS V14.01,2013-12-26 08:48:00,
2013-12-26 03:49:00,72.7,71.5,30.03,NNE,24,6.0,8.0,96,0.00,,FEW,0.03,0.00,VWS V14.01,2013-12-26 08:49:00,
2013-12-26 03:50:00,72.7,71.2,30.03,NNE,30,1.0,8.0,95,0.00,,FEW,0.03,0.00,VWS V14.01,2013-12-26 08:50:00,
2013-12-26 03:51:00,72.7,71.2,30.03,NNE,31,2.0,8.0,95,0.00,,FEW,0.03,0.00,VWS V14.01,2013-12-26 08:51:00,
2013-12-26 03:53:00,72.7,71.2,30.03,NNE,33,3.0,6.0,95,0.00,,FEW,0.03,0.00,VWS V14.01,2013-12-26 08:53:00,
2013-12-26 03:54:00,72.7,71.2,30.03,East,84,3.0,9.0,95,0.00,,FEW,0.03,0.00,VWS V14.01,2013-12-26 08:54:00,
2013-12-26 03:55:00,72.7,71.2,30.03,NE,42,5.0,9.0,95,0.00,,FEW,0.03,0.00,VWS V14.01,2013-12-26 08:55:00,
2013-12-26 03:56:00,72.7,71.2,30.03,NNE,24,1.0,9.0,95,0.00,,FEW,0.03,0.00,VWS V14.01,2013-12-26 08:56:00,
2013-12-26 03:58:00,72.8,71.6,30.03,ENE,59,5.0,9.0,96,0.00,,FEW,0.03,0.00,VWS V14.01,2013-12-26 08:58:00,
2013-12-26 03:59:00,72.8,71.3,30.03,ENE,67,4.0,9.0,95,0.00,,FEW,0.03,0.00,VWS V14.01,2013-12-26 08:59:00,
2013-12-26 04:00:00,72.8,71.3,30.03,NE,42,2.0,9.0,95,0.00,,FEW,0.03,0.00,VWS V14.01,2013-12-26 09:00:00,
2013-12-26 04:01:00,72.8,71.3,30.03,NE,38,7.0,9.0,95,0.00,,FEW,0.03,0.00,VWS V14.01,2013-12-26 09:01:00,
2013-12-26 04:03:00,72.8,71.3,30.03,NE,42,8.0,8.0,95,0.00,,FEW,0.03,0.00,VWS V14.01,2013-12-26 09:03:00,
2013-12-26 04:04:00,72.8,71.3,30.03,NNE,13,7.0,12.0,95,0.00,,FEW,0.03,0.00,VWS V14.01,2013-12-26 09:04:00,
2013-12-26 04:05:00,72.7,71.2,30.03,NE,54,3.0,12.0,95,0.00,,FEW,0.03,0.00,VWS V14.01,2013-12-26 09:05:00,
2013-12-26 04:06:00,72.6,71.1,30.03,North,355,5.0,12.0,95,0.00,,FEW,0.03,0.00,VWS V14.01,2013-12-26 09:06:00,
2013-12-26 04:08:00,72.6,71.1,30.03,NNE,26,1.0,12.0,95,0.00,,FEW,0.03,0.00,VWS V14.01,2013-12-26 09:08:00,
2013-12-26 04:09:00,72.6,71.1,30.03,NNE,20,2.0,12.0,95,0.00,,FEW,0.03,0.00,VWS V14.01,2013-12-26 09:09:00,
2013-12-26 04:11:00,72.5,71.0,30.03,North,350,4.0,12.0,95,0.00,,FEW,0.03,0.00,VWS V14.01,2013-12-26 09:11:00,
2013-12-26 04:13:00,72.5,71.0,30.03,NNE,23,3.0,8.0,95,0.00,,FEW,0.03,0.00,VWS V14.01,2013-12-26 09:13:00,
2013-12-26 04:14:00,72.4,70.9,30.03,NNE,32,2.0,8.0,95,0.00,,FEW,0.03,0.00,VWS V14.01,2013-12-26 09:14:00,
2013-12-26 04:16:00,72.3,70.8,30.03,NE,47,5.0,8.0,95,0.00,,FEW,0.03,0.00,VWS V14.01,2013-12-26 09:16:00,
2013-12-26 04:18:00,72.3,70.8,30.03,NNE,25,4.0,8.0,95,0.00,,FEW,0.03,0.00,VWS V14.01,2013-12-26 09:18:00,
2013-12-26 04:19:00,72.2,70.7,30.03,NE,49,5.0,8.0,95,0.00,,FEW,0.03,0.00,VWS V14.01,2013-12-26 09:19:00,
2013-12-26 04:21:00,72.2,71.0,30.03,NNE,32,10.0,10.0,96,0.00,,FEW,0.03,0.00,VWS V14.01,2013-12-26 09:21:00,
2013-12-26 04:22:00,72.2,70.7,30.03,NNE,12,2.0,10.0,95,0.00,,FEW,0.03,0.00,VWS V14.01,2013-12-26 09:22:00,
2013-12-26 04:23:00,72.2,70.7,30.03,NNE,30,6.0,10.0,95,0.00,,FEW,0.03,0.00,VWS V14.01,2013-12-26 09:23:00,
2013-12-26 04:24:00,72.1,70.6,30.03,NNE,24,4.0,10.0,95,0.00,,FEW,0.03,0.00,VWS V14.01,2013-12-26 09:24:00,
2013-12-26 04:26:00,72.1,70.6,30.03,NNE,17,8.0,10.0,95,0.00,,FEW,0.03,0.00,VWS V14.01,2013-12-26 09:26:00,
2013-12-26 04:27:00,72.1,70.6,30.03,NNE,30,4.0,10.0,95,0.00,,FEW,0.03,0.00,VWS V14.01,2013-12-26 09:27:00,
2013-12-26 04:28:00,72.1,70.6,30.03,NE,38,2.0,10.0,95,0.00,,FEW,0.03,0.00,VWS V14.01,2013-12-26 09:28:00,
2013-12-26 04:29:00,72.1,70.6,30.03,NNE,26,2.0,10.0,95,0.00,,FEW,0.03,0.00,VWS V14.01,2013-12-26 09:29:00,
2013-12-26 04:31:00,72.0,70.5,30.03,NNE,20,6.0,11.0,95,0.00,,FEW,0.03,0.00,VWS V14.01,2013-12-26 09:31:00,
2013-12-26 04:33:00,72.0,70.5,30.03,North,360,8.0,8.0,95,0.00,,FEW,0.03,0.00,VWS V14.01,2013-12-26 09:33:00,
2013-12-26 04:34:00,72.0,70.5,30.03,NE,47,3.0,9.0,95,0.00,,FEW,0.03,0.00,VWS V14.01,2013-12-26 09:34:00,
2013-12-26 04:36:00,71.9,70.4,30.03,NE,41,5.0,9.0,95,0.00,,FEW,0.03,0.00,VWS V14.01,2013-12-26 09:36:00,
2013-12-26 04:37:00,72.0,70.5,30.03,NE,39,5.0,9.0,95,0.00,,FEW,0.03,0.00,VWS V14.01,2013-12-26 09:37:00,
2013-12-26 04:38:00,71.9,70.4,30.03,NNE,24,4.0,9.0,95,0.00,,FEW,0.03,0.00,VWS V14.01,2013-12-26 09:38:00,
2013-12-26 04:39:00,71.9,70.4,30.03,NNE,33,2.0,12.0,95,0.00,,FEW,0.03,0.00,VWS V14.01,2013-12-26 09:39:00,
2013-12-26 04:41:00,71.9,70.4,30.03,North,355,9.0,9.0,95,0.00,,FEW,0.03,0.00,VWS V14.01,2013-12-26 09:41:00,
2013-12-26 04:42:00,71.9,70.4,30.03,NE,40,4.0,9.0,95,0.00,,FEW,0.03,0.00,VWS V14.01,2013-12-26 09:42:00,
2013-12-26 04:43:00,71.9,70.7,30.03,NE,52,4.0,9.0,96,0.00,,FEW,0.03,0.00,VWS V14.01,2013-12-26 09:43:00,
2013-12-26 04:44:00,71.9,70.7,30.03,ENE,63,1.0,9.0,96,0.00,,FEW,0.03,0.00,VWS V14.01,2013-12-26 09:44:00,
2013-12-26 04:46:00,71.8,70.6,30.03,NE,42,5.0,10.0,96,0.00,,FEW,0.03,0.00,VWS V14.01,2013-12-26 09:46:00,
2013-12-26 04:47:00,71.8,70.6,30.03,NE,35,5.0,10.0,96,0.00,,FEW,0.03,0.00,VWS V14.01,2013-12-26 09:47:00,
2013-12-26 04:48:00,71.8,70.6,30.03,NE,47,4.0,11.0,96,0.00,,FEW,0.03,0.00,VWS V14.01,2013-12-26 09:48:00,
2013-12-26 04:49:00,71.7,70.5,30.03,NE,51,3.0,11.0,96,0.00,,FEW,0.03,0.00,VWS V14.01,2013-12-26 09:49:00,
2013-12-26 04:51:00,71.7,70.5,30.03,North,360,3.0,4.0,96,0.00,,FEW,0.03,0.00,VWS V14.01,2013-12-26 09:51:00,
2013-12-26 04:52:00,71.7,70.5,30.03,NE,40,4.0,7.0,96,0.00,,FEW,0.03,0.00,VWS V14.01,2013-12-26 09:52:00,
2013-12-26 04:54:00,71.7,70.5,30.03,NE,50,10.0,10.0,96,0.00,,FEW,0.03,0.00,VWS V14.01,2013-12-26 09:54:00,
2013-12-26 04:55:00,71.7,70.5,30.03,NNE,31,5.0,10.0,96,0.00,,FEW,0.03,0.00,VWS V14.01,2013-12-26 09:55:00,
2013-12-26 04:56:00,71.7,70.5,30.03,NE,36,5.0,10.0,96,0.00,,FEW,0.03,0.00,VWS V14.01,2013-12-26 09:56:00,
2013-12-26 04:57:00,71.7,70.5,30.03,NNE,32,10.0,10.0,96,0.00,,FEW,0.03,0.00,VWS V14.01,2013-12-26 09:57:00,
2013-12-26 04:59:00,71.7,70.5,30.03,ENE,64,7.0,10.0,96,0.00,,FEW,0.03,0.00,VWS V14.01,2013-12-26 09:59:00,
2013-12-26 05:00:00,71.7,70.5,30.03,NNE,15,6.0,13.0,96,0.00,,FEW,0.03,0.00,VWS V14.01,2013-12-26 10:00:00,
2013-12-26 05:01:00,71.7,70.5,30.03,NE,44,4.0,6.0,96,0.00,,FEW,0.03,0.00,VWS V14.01,2013-12-26 10:01:00,
2013-12-26 05:02:00,71.7,70.5,30.03,NNE,26,4.0,8.0,96,0.00,,FEW,0.03,0.00,VWS V14.01,2013-12-26 10:02:00,
2013-12-26 05:03:00,71.6,70.4,30.03,NE,34,2.0,8.0,96,0.00,,FEW,0.03,0.00,VWS V14.01,2013-12-26 10:03:00,
2013-12-26 05:04:00,71.6,70.4,30.03,NNE,13,7.0,8.0,96,0.00,,FEW,0.03,0.00,VWS V14.01,2013-12-26 10:04:00,
2013-12-26 05:05:00,71.6,70.4,30.03,NE,43,4.0,8.0,96,0.00,,FEW,0.03,0.00,VWS V14.01,2013-12-26 10:05:00,
2013-12-26 05:06:00,71.6,70.4,30.03,NNE,20,5.0,9.0,96,0.00,,FEW,0.03,0.00,VWS V14.01,2013-12-26 10:06:00,
2013-12-26 05:07:00,71.6,70.4,30.03,NNE,19,8.0,9.0,96,0.00,,FEW,0.03,0.00,VWS V14.01,2013-12-26 10:07:00,
2013-12-26 05:08:00,71.6,70.4,30.03,NNE,31,3.0,9.0,96,0.00,,FEW,0.03,0.00,VWS V14.01,2013-12-26 10:08:00,
2013-12-26 05:09:00,71.6,70.4,30.03,ENE,68,5.0,9.0,96,0.00,,FEW,0.03,0.00,VWS V14.01,2013-12-26 10:09:00,
2013-12-26 05:10:00,71.6,70.4,30.03,NE,50,4.0,9.0,96,0.00,,FEW,0.03,0.00,VWS V14.01,2013-12-26 10:10:00,
2013-12-26 05:11:00,71.7,70.5,30.03,NE,35,10.0,10.0,96,0.00,,FEW,0.03,0.00,VWS V14.01,2013-12-26 10:11:00,
2013-12-26 05:12:00,71.7,70.5,30.03,NE,38,3.0,10.0,96,0.00,,FEW,0.03,0.00,VWS V14.01,2013-12-26 10:12:00,
2013-12-26 05:13:00,71.7,70.5,30.03,NE,44,4.0,10.0,96,0.00,,FEW,0.03,0.00,VWS V14.01,2013-12-26 10:13:00,
2013-12-26 05:14:00,71.7,70.5,30.03,North,11,3.0,10.0,96,0.00,,FEW,0.03,0.00,VWS V14.01,2013-12-26 10:14:00,
2013-12-26 05:15:00,71.7,70.5,30.03,NNE,18,7.0,10.0,96,0.00,,FEW,0.03,0.00,VWS V14.01,2013-12-26 10:15:00,
2013-12-26 05:17:00,71.6,70.4,30.03,NNE,26,4.0,10.0,96,0.00,,FEW,0.03,0.00,VWS V14.01,2013-12-26 10:17:00,
2013-12-26 05:18:00,71.6,70.4,30.03,NNE,28,4.0,10.0,96,0.00,,FEW,0.03,0.00,VWS V14.01,2013-12-26 10:18:00,
2013-12-26 05:19:00,71.6,70.4,30.03,NNE,32,3.0,10.0,96,0.00,,FEW,0.03,0.00,VWS V14.01,2013-12-26 10:19:00,
2013-12-26 05:20:00,71.6,70.4,30.03,NE,38,5.0,10.0,96,0.00,,FEW,0.03,0.00,VWS V14.01,2013-12-26 10:20:00,
2013-12-26 05:22:00,71.7,70.5,30.03,NNE,26,2.0,7.0,96,0.00,,FEW,0.03,0.00,VWS V14.01,2013-12-26 10:22:00,
2013-12-26 05:23:00,71.7,70.5,30.03,NNE,30,4.0,7.0,96,0.00,,FEW,0.03,0.00,VWS V14.01,2013-12-26 10:23:00,
2013-12-26 05:24:00,71.7,70.5,30.03,NE,55,7.0,7.0,96,0.00,,FEW,0.03,0.00,VWS V14.01,2013-12-26 10:24:00,
2013-12-26 05:25:00,71.7,70.5,30.03,NE,40,4.0,7.0,96,0.00,,FEW,0.03,0.00,VWS V14.01,2013-12-26 10:25:00,
2013-12-26 05:26:00,71.8,70.6,30.03,NNE,19,5.0,7.0,96,0.00,,FEW,0.03,0.00,VWS V14.01,2013-12-26 10:26:00,
2013-12-26 05:27:00,71.8,70.6,30.03,ENE,65,5.0,9.0,96,0.00,,FEW,0.03,0.00,VWS V14.01,2013-12-26 10:27:00,
2013-12-26 05:28:00,71.9,70.7,30.03,North,9,5.0,9.0,96,0.00,,FEW,0.03,0.00,VWS V14.01,2013-12-26 10:28:00,
2013-12-26 05:29:00,71.9,70.7,30.03,NE,42,7.0,10.0,96,0.00,,FEW,0.03,0.00,VWS V14.01,2013-12-26 10:29:00,
2013-12-26 05:30:00,71.9,70.7,30.03,NNE,31,5.0,10.0,96,0.00,,FEW,0.03,0.00,VWS V14.01,2013-12-26 10:30:00,
2013-12-26 05:31:00,71.9,70.7,30.03,NNE,33,4.0,10.0,96,0.00,,FEW,0.03,0.00,VWS V14.01,2013-12-26 10:31:00,
2013-12-26 05:32:00,71.9,70.7,30.03,NNE,32,2.0,5.0,96,0.00,,FEW,0.03,0.00,VWS V14.01,2013-12-26 10:32:00,
2013-12-26 05:33:00,71.9,70.7,30.03,NNE,15,7.0,7.0,96,0.00,,FEW,0.03,0.00,VWS V14.01,2013-12-26 10:33:00,
2013-12-26 05:34:00,71.9,70.7,30.03,NNE,18,3.0,8.0,96,0.00,,FEW,0.03,0.00,VWS V14.01,2013-12-26 10:34:00,
2013-12-26 05:35:00,71.9,70.7,30.03,NE,44,3.0,9.0,96,0.00,,FEW,0.03,0.00,VWS V14.01,2013-12-26 10:35:00,
2013-12-26 05:36:00,71.9,70.7,30.03,NE,38,4.0,9.0,96,0.00,,FEW,0.03,0.00,VWS V14.01,2013-12-26 10:36:00,
2013-12-26 05:37:00,72.0,70.8,30.03,NE,39,8.0,10.0,96,0.00,,FEW,0.03,0.00,VWS V14.01,2013-12-26 10:37:00,
2013-12-26 05:38:00,72.0,70.8,30.03,NE,46,5.0,10.0,96,0.00,,FEW,0.03,0.00,VWS V14.01,2013-12-26 10:38:00,
2013-12-26 05:40:00,72.0,70.8,30.03,NE,51,6.0,10.0,96,0.00,,FEW,0.03,0.00,VWS V14.01,2013-12-26 10:40:00,
2013-12-26 05:41:00,72.0,70.8,30.03,NE,35,3.0,10.0,96,0.00,,FEW,0.03,0.00,VWS V14.01,2013-12-26 10:41:00,
2013-12-26 05:42:00,72.1,70.9,30.03,NE,40,6.0,10.0,96,0.00,,FEW,0.03,0.00,VWS V14.01,2013-12-26 10:42:00,
2013-12-26 05:43:00,72.1,70.9,30.03,NE,55,5.0,10.0,96,0.00,,FEW,0.03,0.00,VWS V14.01,2013-12-26 10:43:00,
2013-12-26 05:45:00,72.1,70.9,30.03,NNE,28,8.0,12.0,96,0.00,,FEW,0.03,0.00,VWS V14.01,2013-12-26 10:45:00,
2013-12-26 05:46:00,72.0,70.8,30.04,NNE,22,7.0,12.0,96,0.00,,FEW,0.03,0.00,VWS V14.01,2013-12-26 10:46:00,
2013-12-26 05:47:00,72.0,70.8,30.04,NNE,26,5.0,12.0,96,0.00,,FEW,0.03,0.00,VWS V14.01,2013-12-26 10:47:00,
2013-12-26 05:48:00,72.0,70.8,30.04,NE,36,9.0,12.0,96,0.00,,FEW,0.03,0.00,VWS V14.01,2013-12-26 10:48:00,
2013-12-26 05:50:00,72.0,70.8,30.04,North,11,6.0,12.0,96,0.00,,FEW,0.03,0.00,VWS V14.01,2013-12-26 10:50:00,
2013-12-26 05:51:00,72.0,70.8,30.04,NE,34,6.0,12.0,96,0.00,,FEW,0.03,0.00,VWS V14.01,2013-12-26 10:51:00,
2013-12-26 05:53:00,72.0,70.8,30.04,NNE,30,6.0,10.0,96,0.00,,FEW,0.03,0.00,VWS V14.01,2013-12-26 10:53:00,
2013-12-26 05:55:00,71.9,70.7,30.04,NNE,33,8.0,10.0,96,0.00,,FEW,0.03,0.00,VWS V14.01,2013-12-26 10:55:00,
2013-12-26 05:56:00,71.9,70.7,30.04,NNE,17,6.0,10.0,96,0.00,,FEW,0.03,0.00,VWS V14.01,2013-12-26 10:56:00,
2013-12-26 05:57:00,71.9,70.7,30.04,NE,50,5.0,10.0,96,0.00,,FEW,0.03,0.00,VWS V14.01,2013-12-26 10:57:00,
2013-12-26 05:58:00,71.9,70.7,30.04,NE,36,6.0,10.0,96,0.00,,FEW,0.03,0.00,VWS V14.01,2013-12-26 10:58:00,
2013-12-26 06:01:00,71.9,70.7,30.04,NE,44,5.0,10.0,96,0.00,,FEW,0.03,0.00,VWS V14.01,2013-12-26 11:01:00,
2013-12-26 06:02:00,71.9,70.7,30.04,NE,51,4.0,7.0,96,0.00,,FEW,0.03,0.00,VWS V14.01,2013-12-26 11:02:00,
2013-12-26 06:03:00,71.9,70.7,30.04,NE,36,4.0,8.0,96,0.00,,FEW,0.03,0.00,VWS V14.01,2013-12-26 11:03:00,
2013-12-26 06:06:00,71.9,70.7,30.04,NE,42,6.0,11.0,96,0.00,,FEW,0.03,0.00,VWS V14.01,2013-12-26 11:06:00,
2013-12-26 06:07:00,71.9,70.7,30.04,NE,42,6.0,11.0,96,0.00,,FEW,0.03,0.00,VWS V14.01,2013-12-26 11:07:00,
2013-12-26 06:08:00,71.9,70.7,30.04,NNE,27,5.0,11.0,96,0.00,,FEW,0.03,0.00,VWS V14.01,2013-12-26 11:08:00,
2013-12-26 06:12:00,71.9,70.7,30.04,NE,35,5.0,5.0,96,0.00,,FEW,0.03,0.00,VWS V14.01,2013-12-26 11:12:00,
2013-12-26 06:13:00,71.9,70.7,30.04,NNE,18,10.0,10.0,96,0.00,,FEW,0.03,0.00,VWS V14.01,2013-12-26 11:13:00,
2013-12-26 06:17:00,71.8,70.6,30.05,NNE,32,10.0,10.0,96,0.00,,FEW,0.03,0.00,VWS V14.01,2013-12-26 11:17:00,
2013-12-26 06:18:00,71.8,70.6,30.05,NE,38,6.0,10.0,96,0.00,,FEW,0.03,0.00,VWS V14.01,2013-12-26 11:18:00,
2013-12-26 06:23:00,71.7,70.5,30.05,NNE,17,5.0,6.0,96,0.00,,FEW,0.03,0.00,VWS V14.01,2013-12-26 11:23:00,
2013-12-26 06:24:00,71.7,70.5,30.05,NNE,32,2.0,8.0,96,0.00,,FEW,0.03,0.00,VWS V14.01,2013-12-26 11:24:00,
2013-12-26 06:28:00,71.7,70.5,30.05,NE,38,4.0,8.0,96,0.00,,FEW,0.03,0.00,VWS V14.01,2013-12-26 11:28:00,
2013-12-26 06:29:00,71.7,70.5,30.05,NE,36,2.0,8.0,96,0.00,,FEW,0.03,0.00,VWS V14.01,2013-12-26 11:29:00,
2013-12-26 06:30:00,71.7,70.5,30.05,NE,44,6.0,8.0,96,0.00,,FEW,0.03,0.00,VWS V14.01,2013-12-26 11:30:00,
2013-12-26 06:33:00,71.7,70.5,30.05,NNE,29,5.0,5.0,96,0.00,,FEW,0.03,0.00,VWS V14.01,2013-12-26 11:33:00,
2013-12-26 06:34:00,71.7,70.5,30.05,North,11,7.0,8.0,96,0.00,,FEW,0.03,0.00,VWS V14.01,2013-12-26 11:34:00,
2013-12-26 06:38:00,71.7,70.5,30.05,NE,51,2.0,10.0,96,0.00,,FEW,0.03,0.00,VWS V14.01,2013-12-26 11:38:00,
2013-12-26 06:39:00,71.7,70.5,30.05,NE,44,4.0,10.0,96,0.00,,FEW,0.03,0.00,VWS V14.01,2013-12-26 11:39:00,
2013-12-26 06:40:00,71.8,70.6,30.05,NE,54,3.0,10.0,96,0.00,,FEW,0.03,0.00,VWS V14.01,2013-12-26 11:40:00,
2013-12-26 06:43:00,71.9,70.7,30.05,North,11,4.0,8.0,96,0.00,,FEW,0.03,0.00,VWS V14.01,2013-12-26 11:43:00,
2013-12-26 06:44:00,71.9,70.7,30.05,NNE,32,6.0,8.0,96,0.00,,FEW,0.03,0.00,VWS V14.01,2013-12-26 11:44:00,
2013-12-26 06:45:00,71.9,70.7,30.05,NNE,18,7.0,8.0,96,0.00,,FEW,0.03,0.00,VWS V14.01,2013-12-26 11:45:00,
2013-12-26 06:49:00,72.0,70.8,30.06,NNE,17,2.0,10.0,96,0.00,,FEW,0.03,0.00,VWS V14.01,2013-12-26 11:49:00,
2013-12-26 06:50:00,72.0,70.8,30.06,NNE,28,4.0,10.0,96,0.00,,FEW,0.03,0.00,VWS V14.01,2013-12-26 11:50:00,
2013-12-26 06:54:00,72.1,70.9,30.06,NE,54,3.0,7.0,96,0.00,,FEW,0.03,0.00,VWS V14.01,2013-12-26 11:54:00,
2013-12-26 06:55:00,72.1,70.9,30.06,NNE,31,3.0,11.0,96,0.00,,FEW,0.03,0.00,VWS V14.01,2013-12-26 11:55:00,
2013-12-26 06:56:00,72.1,70.9,30.06,NNE,24,4.0,11.0,96,0.00,,FEW,0.03,0.00,VWS V14.01,2013-12-26 11:56:00,
2013-12-26 06:59:00,72.1,70.9,30.06,NNE,32,5.0,11.0,96,0.00,,FEW,0.03,0.00,VWS V14.01,2013-12-26 11:59:00,
2013-12-26 07:00:00,72.1,70.9,30.06,NNE,29,3.0,11.0,96,0.00,,FEW,0.03,0.00,VWS V14.01,2013-12-26 12:00:00,
2013-12-26 07:01:00,72.1,70.9,30.07,NE,42,4.0,11.0,96,0.00,,FEW,0.03,5.00,VWS V14.01,2013-12-26 12:01:00,
2013-12-26 07:04:00,72.2,71.0,30.07,NNE,31,2.0,9.0,96,0.00,,FEW,0.03,7.00,VWS V14.01,2013-12-26 12:04:00,
2013-12-26 07:05:00,72.2,71.0,30.07,NNE,24,1.0,9.0,96,0.00,,FEW,0.03,7.00,VWS V14.01,2013-12-26 12:05:00,
2013-12-26 07:06:00,72.2,71.0,30.07,NNE,22,7.0,9.0,96,0.00,,FEW,0.03,7.00,VWS V14.01,2013-12-26 12:06:00,
2013-12-26 07:09:00,72.3,71.1,30.07,NE,44,5.0,9.0,96,0.00,,FEW,0.03,12.00,VWS V14.01,2013-12-26 12:09:00,
2013-12-26 07:10:00,72.3,71.1,30.07,NNE,31,6.0,9.0,96,0.00,,FEW,0.03,12.00,VWS V14.01,2013-12-26 12:10:00,
2013-12-26 07:11:00,72.3,71.1,30.07,NE,38,6.0,10.0,96,0.00,,FEW,0.03,14.00,VWS V14.01,2013-12-26 12:11:00,
2013-12-26 07:14:00,72.3,71.1,30.07,NNE,30,6.0,10.0,96,0.00,,FEW,0.03,16.00,VWS V14.01,2013-12-26 12:14:00,
2013-12-26 07:15:00,72.3,71.1,30.07,NE,51,3.0,10.0,96,0.00,,FEW,0.03,18.00,VWS V14.01,2013-12-26 12:15:00,
2013-12-26 07:16:00,72.3,71.1,30.07,NNE,32,3.0,10.0,96,0.00,,FEW,0.03,18.00,VWS V14.01,2013-12-26 12:16:00,
2013-12-26 07:19:00,72.3,71.1,30.07,North,351,5.0,11.0,96,0.00,,FEW,0.03,21.00,VWS V14.01,2013-12-26 12:19:00,
2013-12-26 07:20:00,72.3,71.1,30.07,NNE,26,3.0,11.0,96,0.00,,FEW,0.03,21.00,VWS V14.01,2013-12-26 12:20:00,
2013-12-26 07:22:00,72.3,71.1,30.07,NE,44,5.0,6.0,96,0.00,,FEW,0.03,23.00,VWS V14.01,2013-12-26 12:22:00,
2013-12-26 07:24:00,72.4,71.2,30.07,NE,36,6.0,13.0,96,0.00,,FEW,0.03,25.00,VWS V14.01,2013-12-26 12:24:00,
2013-12-26 07:25:00,72.4,71.2,30.07,NE,34,6.0,13.0,96,0.00,,FEW,0.03,25.00,VWS V14.01,2013-12-26 12:25:00,
2013-12-26 07:26:00,72.3,71.1,30.07,NNE,15,4.0,13.0,96,0.00,,FEW,0.03,25.00,VWS V14.01,2013-12-26 12:26:00,
2013-12-26 07:27:00,72.3,71.1,30.07,NE,40,9.0,13.0,96,0.00,,FEW,0.03,26.00,VWS V14.01,2013-12-26 12:27:00,
2013-12-26 07:29:00,72.2,71.0,30.07,NNE,22,8.0,13.0,96,0.00,,FEW,0.03,25.00,VWS V14.01,2013-12-26 12:29:00,
2013-12-26 07:30:00,72.2,71.0,30.07,NE,49,7.0,13.0,96,0.00,,FEW,0.03,25.00,VWS V14.01,2013-12-26 12:30:00,
2013-12-26 07:31:00,72.2,71.0,30.07,NE,42,9.0,13.0,96,0.00,,FEW,0.03,25.00,VWS V14.01,2013-12-26 12:31:00,
2013-12-26 07:32:00,72.1,70.9,30.07,NE,54,5.0,11.0,96,0.00,,FEW,0.03,26.00,VWS V14.01,2013-12-26 12:32:00,
2013-12-26 07:35:00,72.1,70.9,30.07,NE,46,4.0,11.0,96,0.00,,FEW,0.03,26.00,VWS V14.01,2013-12-26 12:35:00,
2013-12-26 07:36:00,72.1,70.9,30.07,NE,56,11.0,11.0,96,0.00,,FEW,0.03,28.00,VWS V14.01,2013-12-26 12:36:00,
2013-12-26 07:37:00,72.1,70.9,30.07,North,355,4.0,11.0,96,0.00,,FEW,0.03,26.00,VWS V14.01,2013-12-26 12:37:00,
2013-12-26 07:40:00,72.0,70.8,30.07,NE,43,2.0,11.0,96,0.00,,FEW,0.03,28.00,VWS V14.01,2013-12-26 12:40:00,
2013-12-26 07:41:00,72.0,70.8,30.07,NNE,32,2.0,4.0,96,0.00,,FEW,0.03,28.00,VWS V14.01,2013-12-26 12:41:00,
2013-12-26 07:42:00,72.0,70.8,30.07,NNE,22,3.0,9.0,96,0.00,,FEW,0.03,28.00,VWS V14.01,2013-12-26 12:42:00,
2013-12-26 07:43:00,72.0,70.8,30.07,NE,35,7.0,9.0,96,0.00,,FEW,0.03,28.00,VWS V14.01,2013-12-26 12:43:00,
2013-12-26 07:45:00,71.9,70.7,30.08,NE,41,9.0,9.0,96,0.00,,FEW,0.03,33.00,VWS V14.01,2013-12-26 12:45:00,
2013-12-26 07:46:00,71.9,70.7,30.08,NNE,29,4.0,9.0,96,0.00,,FEW,0.03,37.00,VWS V14.01,2013-12-26 12:46:00,
2013-12-26 07:48:00,71.9,70.7,30.08,NE,42,4.0,9.0,96,0.00,,FEW,0.03,39.00,VWS V14.01,2013-12-26 12:48:00,
2013-12-26 07:50:00,71.9,70.7,30.08,NNE,30,6.0,12.0,96,0.00,,FEW,0.03,42.00,VWS V14.01,2013-12-26 12:50:00,
2013-12-26 07:51:00,71.9,70.7,30.08,North,5,8.0,12.0,96,0.00,,FEW,0.03,42.00,VWS V14.01,2013-12-26 12:51:00,
2013-12-26 07:54:00,71.8,70.6,30.08,NNE,14,8.0,8.0,96,0.00,,FEW,0.03,46.00,VWS V14.01,2013-12-26 12:54:00,
2013-12-26 07:55:00,71.8,70.6,30.08,NNE,28,5.0,10.0,96,0.00,,FEW,0.03,51.00,VWS V14.01,2013-12-26 12:55:00,
2013-12-26 07:56:00,71.8,70.6,30.08,NE,37,9.0,11.0,96,0.00,,FEW,0.03,56.00,VWS V14.01,2013-12-26 12:56:00,
2013-12-26 07:57:00,71.8,70.6,30.08,NE,40,6.0,11.0,96,0.00,,FEW,0.03,63.00,VWS V14.01,2013-12-26 12:57:00,
2013-12-26 07:59:00,71.8,70.6,30.08,NNE,27,4.0,11.0,96,0.00,,FEW,0.03,69.00,VWS V14.01,2013-12-26 12:59:00,
2013-12-26 08:00:00,71.9,70.7,30.09,NNE,31,5.0,11.0,96,0.00,,FEW,0.03,67.00,VWS V14.01,2013-12-26 13:00:00,
2013-12-26 08:01:00,71.9,70.7,30.09,NE,36,4.0,11.0,96,0.00,,FEW,0.03,69.00,VWS V14.01,2013-12-26 13:01:00,
2013-12-26 08:02:00,72.0,70.8,30.09,NE,34,4.0,7.0,96,0.00,,FEW,0.03,74.00,VWS V14.01,2013-12-26 13:02:00,
2013-12-26 08:04:00,72.0,70.8,30.09,North,5,8.0,8.0,96,0.00,,FEW,0.03,84.00,VWS V14.01,2013-12-26 13:04:00,
2013-12-26 08:05:00,72.1,70.9,30.09,ENE,57,5.0,11.0,96,0.00,,FEW,0.03,128.00,VWS V14.01,2013-12-26 13:05:00,
2013-12-26 08:06:00,72.1,70.9,30.09,NE,49,4.0,11.0,96,0.00,,FEW,0.03,128.00,VWS V14.01,2013-12-26 13:06:00,
2013-12-26 08:07:00,72.1,70.9,30.09,NE,39,8.0,11.0,96,0.00,,FEW,0.03,158.00,VWS V14.01,2013-12-26 13:07:00,
2013-12-26 08:09:00,72.1,70.9,30.09,NNE,32,5.0,11.0,96,0.00,,FEW,0.03,179.00,VWS V14.01,2013-12-26 13:09:00,
2013-12-26 08:11:00,72.2,71.0,30.09,NNE,30,8.0,11.0,96,0.00,,FEW,0.03,176.00,VWS V14.01,2013-12-26 13:11:00,
2013-12-26 08:12:00,72.2,71.0,30.09,NNE,28,6.0,7.0,96,0.00,,FEW,0.03,169.00,VWS V14.01,2013-12-26 13:12:00,
2013-12-26 08:14:00,72.2,71.0,30.09,NNE,24,3.0,10.0,96,0.00,,FEW,0.03,162.00,VWS V14.01,2013-12-26 13:14:00,
2013-12-26 08:16:00,72.2,71.0,30.09,NNE,32,5.0,10.0,96,0.00,,FEW,0.03,156.00,VWS V14.01,2013-12-26 13:16:00,
2013-12-26 08:17:00,72.2,71.0,30.09,NE,40,8.0,10.0,96,0.00,,FEW,0.03,151.00,VWS V14.01,2013-12-26 13:17:00,
2013-12-26 08:19:00,72.2,71.0,30.09,North,355,7.0,10.0,96,0.00,,FEW,0.03,137.00,VWS V14.01,2013-12-26 13:19:00,
2013-12-26 08:21:00,72.2,71.0,30.09,North,5,5.0,10.0,96,0.00,,FEW,0.03,178.00,VWS V14.01,2013-12-26 13:21:00,
2013-12-26 08:22:00,72.2,71.0,30.09,NNW,346,6.0,6.0,96,0.00,,FEW,0.03,178.00,VWS V14.01,2013-12-26 13:22:00,
2013-12-26 08:24:00,72.2,71.0,30.09,NNE,18,6.0,6.0,96,0.00,,FEW,0.03,216.00,VWS V14.01,2013-12-26 13:24:00,
2013-12-26 08:25:00,72.3,71.1,30.09,NNW,341,6.0,8.0,96,0.00,,FEW,0.03,135.00,VWS V14.01,2013-12-26 13:25:00,
2013-12-26 08:26:00,72.3,71.1,30.09,NE,45,3.0,8.0,96,0.00,,FEW,0.03,123.00,VWS V14.01,2013-12-26 13:26:00,
2013-12-26 08:27:00,72.4,71.2,30.09,NE,48,5.0,8.0,96,0.00,,FEW,0.03,128.00,VWS V14.01,2013-12-26 13:27:00,
2013-12-26 08:28:00,72.4,71.2,30.09,NE,42,3.0,8.0,96,0.00,,FEW,0.03,130.00,VWS V14.01,2013-12-26 13:28:00,
2013-12-26 08:29:00,72.4,71.2,30.09,NNE,17,4.0,8.0,96,0.00,,FEW,0.03,135.00,VWS V14.01,2013-12-26 13:29:00,
2013-12-26 08:30:00,72.5,71.3,30.09,NNE,23,5.0,8.0,96,0.00,,FEW,0.03,163.00,VWS V14.01,2013-12-26 13:30:00,
2013-12-26 08:31:00,72.5,71.3,30.10,NE,34,3.0,8.0,96,0.00,,FEW,0.03,248.00,VWS V14.01,2013-12-26 13:31:00,
2013-12-26 08:32:00,72.6,71.4,30.10,NNE,29,3.0,7.0,96,0.00,,FEW,0.03,294.00,VWS V14.01,2013-12-26 13:32:00,
2013-12-26 08:33:00,72.6,71.4,30.10,North,349,7.0,7.0,96,0.00,,FEW,0.03,246.00,VWS V14.01,2013-12-26 13:33:00,
2013-12-26 08:34:00,72.6,71.4,30.10,NNE,13,5.0,7.0,96,0.00,,FEW,0.03,295.00,VWS V14.01,2013-12-26 13:34:00,
2013-12-26 08:35:00,72.6,71.4,30.10,NNE,32,7.0,7.0,96,0.00,,FEW,0.03,297.00,VWS V14.01,2013-12-26 13:35:00,
2013-12-26 08:36:00,72.7,71.5,30.10,NE,48,8.0,8.0,96,0.00,,FEW,0.03,297.00,VWS V14.01,2013-12-26 13:36:00,
2013-12-26 08:37:00,72.8,71.6,30.10,ENE,62,5.0,8.0,96,0.00,,FEW,0.03,285.00,VWS V14.01,2013-12-26 13:37:00,
2013-12-26 08:38:00,72.8,71.6,30.10,NE,34,6.0,8.0,96,0.00,,FEW,0.03,285.00,VWS V14.01,2013-12-26 13:38:00,
2013-12-26 08:40:00,73.0,71.8,30.10,NNE,16,6.0,8.0,96,0.00,,FEW,0.03,309.00,VWS V14.01,2013-12-26 13:40:00,
2013-12-26 08:41:00,73.0,71.8,30.10,NE,34,2.0,8.0,96,0.00,,FEW,0.03,315.00,VWS V14.01,2013-12-26 13:41:00,
2013-12-26 08:42:00,73.0,71.8,30.10,NE,48,3.0,7.0,96,0.00,,FEW,0.03,320.00,VWS V14.01,2013-12-26 13:42:00,
2013-12-26 08:43:00,73.0,71.8,30.10,NE,38,5.0,7.0,96,0.00,,FEW,0.03,320.00,VWS V14.01,2013-12-26 13:43:00,
2013-12-26 08:45:00,73.1,71.9,30.10,NE,51,5.0,7.0,96,0.00,,FEW,0.03,339.00,VWS V14.01,2013-12-26 13:45:00,
2013-12-26 08:46:00,73.2,72.0,30.10,North,5,5.0,8.0,96,0.00,,FEW,0.03,339.00,VWS V14.01,2013-12-26 13:46:00,
2013-12-26 08:48:00,73.3,72.1,30.10,NE,36,3.0,9.0,96,0.00,,FEW,0.03,320.00,VWS V14.01,2013-12-26 13:48:00,
2013-12-26 08:50:00,73.4,71.9,30.10,NNE,14,5.0,9.0,95,0.00,,FEW,0.03,334.00,VWS V14.01,2013-12-26 13:50:00,
2013-12-26 08:51:00,73.4,71.9,30.10,NE,51,6.0,6.0,95,0.00,,FEW,0.03,313.00,VWS V14.01,2013-12-26 13:51:00,
2013-12-26 08:53:00,73.4,71.9,30.10,NNE,32,5.0,9.0,95,0.00,,FEW,0.03,304.00,VWS V14.01,2013-12-26 13:53:00,
2013-12-26 08:55:00,73.5,72.0,30.10,ENE,58,4.0,9.0,95,0.00,,FEW,0.03,227.00,VWS V14.01,2013-12-26 13:55:00,
2013-12-26 08:56:00,73.5,72.0,30.10,ENE,68,5.0,9.0,95,0.00,,FEW,0.03,227.00,VWS V14.01,2013-12-26 13:56:00,
2013-12-26 08:58:00,73.6,72.1,30.10,ENE,59,1.0,9.0,95,0.00,,FEW,0.03,364.00,VWS V14.01,2013-12-26 13:58:00,
2013-12-26 09:00:00,73.7,72.2,30.10,NE,45,4.0,11.0,95,0.00,,FEW,0.03,163.00,VWS V14.01,2013-12-26 14:00:00,
2013-12-26 09:01:00,73.7,72.2,30.10,NE,34,6.0,11.0,95,0.00,,FEW,0.03,163.00,VWS V14.01,2013-12-26 14:01:00,
2013-12-26 09:02:00,73.7,72.2,30.10,NNE,31,5.0,7.0,95,0.00,,FEW,0.03,148.00,VWS V14.01,2013-12-26 14:02:00,
2013-12-26 09:03:00,73.7,72.2,30.10,NE,35,2.0,8.0,95,0.00,,FEW,0.03,227.00,VWS V14.01,2013-12-26 14:03:00,
2013-12-26 09:05:00,73.7,72.2,30.10,NNE,28,2.0,8.0,95,0.00,,FEW,0.03,165.00,VWS V14.01,2013-12-26 14:05:00,
2013-12-26 09:06:00,73.7,72.2,30.10,NE,36,3.0,8.0,95,0.00,,FEW,0.03,213.00,VWS V14.01,2013-12-26 14:06:00,
2013-12-26 09:07:00,73.7,72.2,30.10,NNE,32,3.0,8.0,95,0.00,,FEW,0.03,213.00,VWS V14.01,2013-12-26 14:07:00,
2013-12-26 09:08:00,73.7,72.2,30.10,North,351,8.0,8.0,95,0.00,,FEW,0.03,237.00,VWS V14.01,2013-12-26 14:08:00,
2013-12-26 09:09:00,73.8,72.3,30.10,NE,45,5.0,8.0,95,0.00,,FEW,0.03,237.00,VWS V14.01,2013-12-26 14:09:00,
2013-12-26 09:11:00,73.9,72.4,30.10,NNE,24,4.0,8.0,95,0.00,,FEW,0.03,251.00,VWS V14.01,2013-12-26 14:11:00,
2013-12-26 09:12:00,73.9,72.4,30.10,NE,42,5.0,5.0,95,0.00,,FEW,0.03,213.00,VWS V14.01,2013-12-26 14:12:00,
2013-12-26 09:14:00,74.0,72.2,30.10,NE,51,3.0,9.0,94,0.00,,FEW,0.03,176.00,VWS V14.01,2013-12-26 14:14:00,
2013-12-26 09:16:00,74.0,72.2,30.11,NE,53,5.0,10.0,94,0.00,,FEW,0.03,192.00,VWS V14.01,2013-12-26 14:16:00,
2013-12-26 09:17:00,74.0,72.2,30.11,NNE,29,4.0,10.0,94,0.00,,FEW,0.03,192.00,VWS V14.01,2013-12-26 14:17:00,
2013-12-26 09:19:00,74.0,72.2,30.11,NE,47,4.0,10.0,94,0.00,,FEW,0.03,149.00,VWS V14.01,2013-12-26 14:19:00,
2013-12-26 09:20:00,74.0,72.2,30.11,NNE,29,1.0,10.0,94,0.00,,FEW,0.03,190.00,VWS V14.01,2013-12-26 14:20:00,
2013-12-26 09:22:00,74.0,72.2,30.11,NE,53,2.0,6.0,94,0.00,,FEW,0.03,288.00,VWS V14.01,2013-12-26 14:22:00,
2013-12-26 09:24:00,74.2,72.4,30.11,NE,40,6.0,8.0,94,0.00,,FEW,0.03,385.00,VWS V14.01,2013-12-26 14:24:00,
2013-12-26 09:25:00,74.2,72.4,30.11,NE,42,5.0,8.0,94,0.00,,FEW,0.03,381.00,VWS V14.01,2013-12-26 14:25:00,
2013-12-26 09:27:00,74.4,72.6,30.11,NNE,33,4.0,8.0,94,0.00,,FEW,0.03,403.00,VWS V14.01,2013-12-26 14:27:00,
2013-12-26 09:29:00,74.6,72.8,30.11,NE,53,3.0,9.0,94,0.00,,FEW,0.03,434.00,VWS V14.01,2013-12-26 14:29:00,
2013-12-26 09:30:00,74.7,72.9,30.11,NNE,23,5.0,9.0,94,0.00,,FEW,0.03,441.00,VWS V14.01,2013-12-26 14:30:00,
2013-12-26 09:32:00,75.0,73.2,30.11,NNE,22,5.0,5.0,94,0.00,,FEW,0.03,450.00,VWS V14.01,2013-12-26 14:32:00,
2013-12-26 09:33:00,75.1,73.3,30.11,NE,44,4.0,5.0,94,0.00,,FEW,0.03,454.00,VWS V14.01,2013-12-26 14:33:00,
2013-12-26 09:34:00,75.2,73.4,30.11,NE,38,8.0,8.0,94,0.00,,FEW,0.03,457.00,VWS V14.01,2013-12-26 14:34:00,
2013-12-26 09:35:00,75.2,73.4,30.11,NE,36,4.0,11.0,94,0.00,,FEW,0.03,455.00,VWS V14.01,2013-12-26 14:35:00,
2013-12-26 09:37:00,75.4,73.2,30.11,NNE,13,3.0,11.0,93,0.00,,FEW,0.03,418.00,VWS V14.01,2013-12-26 14:37:00,
2013-12-26 09:38:00,75.5,73.3,30.11,NNE,18,7.0,11.0,93,0.00,,FEW,0.03,415.00,VWS V14.01,2013-12-26 14:38:00,
2013-12-26 09:39:00,75.6,73.4,30.11,NNE,32,3.0,11.0,93,0.00,,FEW,0.03,432.00,VWS V14.01,2013-12-26 14:39:00,
2013-12-26 09:40:00,75.7,73.5,30.11,NNE,30,2.0,11.0,93,0.00,,FEW,0.03,403.00,VWS V14.01,2013-12-26 14:40:00,
2013-12-26 09:42:00,75.8,73.6,30.11,NE,34,5.0,7.0,93,0.00,,FEW,0.03,197.00,VWS V14.01,2013-12-26 14:42:00,
2013-12-26 09:43:00,75.8,73.6,30.11,North,5,4.0,7.0,93,0.00,,FEW,0.03,163.00,VWS V14.01,2013-12-26 14:43:00,
2013-12-26 09:44:00,75.8,73.6,30.11,NE,34,5.0,7.0,93,0.00,,FEW,0.03,183.00,VWS V14.01,2013-12-26 14:44:00,
2013-12-26 09:45:00,75.8,73.6,30.11,NNE,24,6.0,7.0,93,0.00,,FEW,0.03,200.00,VWS V14.01,2013-12-26 14:45:00,
2013-12-26 09:47:00,75.8,73.3,30.11,NE,44,5.0,8.0,92,0.00,,FEW,0.03,510.00,VWS V14.01,2013-12-26 14:47:00,
2013-12-26 09:48:00,75.9,73.4,30.11,NNE,18,5.0,8.0,92,0.00,,FEW,0.03,510.00,VWS V14.01,2013-12-26 14:48:00,
2013-12-26 09:49:00,76.0,73.5,30.11,NE,35,3.0,8.0,92,0.00,,FEW,0.03,559.00,VWS V14.01,2013-12-26 14:49:00,
2013-12-26 09:50:00,76.1,73.6,30.11,NE,47,5.0,8.0,92,0.00,,FEW,0.03,568.00,VWS V14.01,2013-12-26 14:50:00,
2013-12-26 09:53:00,76.4,73.9,30.11,NE,53,5.0,9.0,92,0.00,,FEW,0.03,566.00,VWS V14.01,2013-12-26 14:53:00,
2013-12-26 09:54:00,76.4,73.9,30.11,NNE,22,7.0,10.0,92,0.00,,FEW,0.03,471.00,VWS V14.01,2013-12-26 14:54:00,
2013-12-26 09:55:00,76.4,73.9,30.11,NE,46,5.0,10.0,92,0.00,,FEW,0.03,410.00,VWS V14.01,2013-12-26 14:55:00,
2013-12-26 09:58:00,76.4,73.6,30.11,NNE,26,6.0,10.0,91,0.00,,FEW,0.03,390.00,VWS V14.01,2013-12-26 14:58:00,
2013-12-26 09:59:00,76.4,73.6,30.11,NNE,30,7.0,10.0,91,0.00,,FEW,0.03,406.00,VWS V14.01,2013-12-26 14:59:00,
2013-12-26 10:01:00,76.3,73.5,30.12,NE,50,7.0,11.0,91,0.00,,FEW,0.03,461.00,VWS V14.01,2013-12-26 15:01:00,
2013-12-26 10:03:00,76.2,73.1,30.12,NE,52,4.0,9.0,90,0.00,,FEW,0.03,420.00,VWS V14.01,2013-12-26 15:03:00,
2013-12-26 10:04:00,76.1,73.0,30.12,NE,53,6.0,9.0,90,0.00,,FEW,0.03,420.00,VWS V14.01,2013-12-26 15:04:00,
2013-12-26 10:05:00,76.0,72.9,30.12,ENE,61,3.0,9.0,90,0.00,,FEW,0.03,420.00,VWS V14.01,2013-12-26 15:05:00,
2013-12-26 10:06:00,76.1,73.0,30.12,NNE,15,9.0,11.0,90,0.00,,FEW,0.03,420.00,VWS V14.01,2013-12-26 15:06:00,
2013-12-26 10:08:00,76.0,72.9,30.12,ENE,69,3.0,11.0,90,0.00,,FEW,0.03,420.00,VWS V14.01,2013-12-26 15:08:00,
2013-12-26 10:09:00,76.1,73.0,30.12,NE,43,5.0,11.0,90,0.00,,FEW,0.03,640.00,VWS V14.01,2013-12-26 15:09:00,
2013-12-26 10:10:00,76.1,73.0,30.12,NE,42,6.0,11.0,90,0.00,,FEW,0.03,640.00,VWS V14.01,2013-12-26 15:10:00,
2013-12-26 10:11:00,76.1,73.0,30.12,NE,45,6.0,11.0,90,0.00,,FEW,0.03,613.00,VWS V14.01,2013-12-26 15:11:00,
2013-12-26 10:13:00,76.3,73.2,30.12,East,80,7.0,9.0,90,0.00,,FEW,0.03,617.00,VWS V14.01,2013-12-26 15:13:00,
2013-12-26 10:14:00,76.4,73.2,30.12,North,9,9.0,11.0,90,0.00,,FEW,0.03,615.00,VWS V14.01,2013-12-26 15:14:00,
2013-12-26 10:15:00,76.4,73.2,30.12,NNE,32,6.0,11.0,90,0.00,,FEW,0.03,615.00,VWS V14.01,2013-12-26 15:15:00,
2013-12-26 10:16:00,76.4,72.9,30.12,NE,50,4.0,11.0,89,0.00,,FEW,0.03,613.00,VWS V14.01,2013-12-26 15:16:00,
2013-12-26 10:18:00,76.5,73.0,30.12,NNE,28,4.0,11.0,89,0.00,,FEW,0.03,617.00,VWS V14.01,2013-12-26 15:18:00,
2013-12-26 10:20:00,76.6,73.1,30.12,NNE,15,7.0,11.0,89,0.00,,FEW,0.03,624.00,VWS V14.01,2013-12-26 15:20:00,
2013-12-26 10:21:00,76.7,73.2,30.12,NE,38,4.0,11.0,89,0.00,,FEW,0.03,631.00,VWS V14.01,2013-12-26 15:21:00,
2013-12-26 10:23:00,76.8,73.3,30.12,NE,36,11.0,11.0,89,0.00,,FEW,0.03,526.00,VWS V14.01,2013-12-26 15:23:00,
2013-12-26 10:25:00,76.7,72.9,30.12,NE,51,7.0,11.0,88,0.00,,FEW,0.03,622.00,VWS V14.01,2013-12-26 15:25:00,
2013-12-26 10:26:00,76.7,72.9,30.12,NE,44,6.0,11.0,88,0.00,,FEW,0.03,541.00,VWS V14.01,2013-12-26 15:26:00,
2013-12-26 10:27:00,76.7,72.9,30.12,NNE,33,11.0,13.0,88,0.00,,FEW,0.03,499.00,VWS V14.01,2013-12-26 15:27:00,
2013-12-26 10:28:00,76.7,72.9,30.12,NE,52,7.0,13.0,88,0.00,,FEW,0.03,436.00,VWS V14.01,2013-12-26 15:28:00,
2013-12-26 10:30:00,76.7,72.9,30.12,NNW,348,6.0,13.0,88,0.00,,FEW,0.03,436.00,VWS V14.01,2013-12-26 15:30:00,
2013-12-26 10:31:00,76.7,72.9,30.12,NE,38,7.0,13.0,88,0.00,,FEW,0.03,436.00,VWS V14.01,2013-12-26 15:31:00,
2013-12-26 10:32:00,76.6,72.8,30.12,ENE,57,7.0,9.0,88,0.00,,FEW,0.03,469.00,VWS V14.01,2013-12-26 15:32:00,
2013-12-26 10:33:00,76.6,72.8,30.12,NE,37,6.0,9.0,88,0.00,,FEW,0.03,469.00,VWS V14.01,2013-12-26 15:33:00,
2013-12-26 10:35:00,76.6,72.8,30.12,NE,39,4.0,10.0,88,0.00,,FEW,0.03,631.00,VWS V14.01,2013-12-26 15:35:00,
2013-12-26 10:36:00,76.6,73.1,30.12,NE,36,5.0,10.0,89,0.00,,FEW,0.03,631.00,VWS V14.01,2013-12-26 15:36:00,
2013-12-26 10:37:00,76.7,72.9,30.12,NE,53,6.0,10.0,88,0.00,,FEW,0.03,512.00,VWS V14.01,2013-12-26 15:37:00,
2013-12-26 10:38:00,76.7,72.9,30.12,NNE,29,6.0,10.0,88,0.00,,FEW,0.03,512.00,VWS V14.01,2013-12-26 15:38:00,
2013-12-26 10:40:00,76.6,72.8,30.12,NNE,29,10.0,11.0,88,0.00,,FEW,0.03,420.00,VWS V14.01,2013-12-26 15:40:00,
2013-12-26 10:41:00,76.6,72.8,30.12,NNE,32,7.0,7.0,88,0.00,,FEW,0.03,360.00,VWS V14.01,2013-12-26 15:41:00,
2013-12-26 10:42:00,76.6,72.8,30.12,NE,42,6.0,8.0,88,0.00,,FEW,0.03,360.00,VWS V14.01,2013-12-26 15:42:00,
2013-12-26 10:43:00,76.5,72.7,30.12,NNE,21,7.0,11.0,88,0.00,,FEW,0.03,371.00,VWS V14.01,2013-12-26 15:43:00,
2013-12-26 10:45:00,76.4,72.6,30.11,NNE,33,8.0,11.0,88,0.00,,FEW,0.03,306.00,VWS V14.01,2013-12-26 15:45:00,
2013-12-26 10:47:00,76.4,72.6,30.11,NNE,17,3.0,11.0,88,0.00,,FEW,0.03,311.00,VWS V14.01,2013-12-26 15:47:00,
2013-12-26 10:48:00,76.4,72.6,30.11,NE,36,3.0,11.0,88,0.00,,FEW,0.03,367.00,VWS V14.01,2013-12-26 15:48:00,
2013-12-26 10:51:00,76.4,72.6,30.11,ENE,65,5.0,11.0,88,0.00,,FEW,0.03,309.00,VWS V14.01,2013-12-26 15:51:00,
2013-12-26 10:52:00,76.4,72.6,30.11,NE,37,3.0,7.0,88,0.00,,FEW,0.03,306.00,VWS V14.01,2013-12-26 15:52:00,
2013-12-26 10:53:00,76.3,72.5,30.11,NE,37,6.0,10.0,88,0.00,,FEW,0.03,287.00,VWS V14.01,2013-12-26 15:53:00,
2013-12-26 10:57:00,76.1,72.3,30.11,NE,38,8.0,10.0,88,0.00,,FEW,0.03,304.00,VWS V14.01,2013-12-26 15:57:00,
2013-12-26 10:58:00,76.0,72.2,30.11,NE,51,6.0,10.0,88,0.00,,FEW,0.03,352.00,VWS V14.01,2013-12-26 15:58:00,
2013-12-26 10:59:00,76.0,72.2,30.11,NE,51,6.0,10.0,88,0.00,,FEW,0.03,352.00,VWS V14.01,2013-12-26 15:59:00,
2013-12-26 11:02:00,76.0,72.2,30.12,NE,38,6.0,9.0,88,0.00,,FEW,0.03,332.00,VWS V14.01,2013-12-26 16:02:00,
2013-12-26 11:03:00,76.0,72.2,30.12,NNE,18,6.0,9.0,88,0.00,,FEW,0.03,309.00,VWS V14.01,2013-12-26 16:03:00,
2013-12-26 11:04:00,76.0,72.2,30.12,NNE,24,7.0,9.0,88,0.00,,FEW,0.03,309.00,VWS V14.01,2013-12-26 16:04:00,
2013-12-26 11:07:00,76.1,72.6,30.12,NE,50,7.0,9.0,89,0.00,,FEW,0.03,598.00,VWS V14.01,2013-12-26 16:07:00,
2013-12-26 11:09:00,76.1,72.3,30.12,NNE,27,6.0,9.0,88,0.00,,FEW,0.03,664.00,VWS V14.01,2013-12-26 16:09:00,
2013-12-26 11:12:00,76.4,72.9,30.12,NE,56,5.0,8.0,89,0.00,,FEW,0.03,682.00,VWS V14.01,2013-12-26 16:12:00,
2013-12-26 11:14:00,76.5,73.0,30.12,NE,40,7.0,8.0,89,0.00,,FEW,0.03,710.00,VWS V14.01,2013-12-26 16:14:00,
2013-12-26 11:17:00,76.7,72.9,30.11,NNE,23,5.0,10.0,88,0.00,,FEW,0.03,740.00,VWS V14.01,2013-12-26 16:17:00,
2013-12-26 11:19:00,76.7,72.9,30.11,North,10,4.0,10.0,88,0.00,,FEW,0.03,543.00,VWS V14.01,2013-12-26 16:19:00,
2013-12-26 11:20:00,76.7,72.9,30.11,NE,49,7.0,14.0,88,0.00,,FEW,0.03,543.00,VWS V14.01,2013-12-26 16:20:00,
2013-12-26 11:22:00,76.7,72.9,30.11,ENE,61,8.0,10.0,88,0.00,,FEW,0.03,573.00,VWS V14.01,2013-12-26 16:22:00,
2013-12-26 11:23:00,76.7,72.9,30.11,ENE,61,8.0,10.0,88,0.00,,FEW,0.03,573.00,VWS V14.01,2013-12-26 16:23:00,
2013-12-26 11:24:00,76.7,72.5,30.11,NE,34,5.0,10.0,87,0.00,,FEW,0.03,573.00,VWS V14.01,2013-12-26 16:24:00,
2013-12-26 11:25:00,76.6,72.8,30.11,NE,43,9.0,10.0,88,0.00,,FEW,0.03,353.00,VWS V14.01,2013-12-26 16:25:00,
2013-12-26 11:28:00,76.5,72.7,30.11,NNE,13,7.0,11.0,88,0.00,,FEW,0.03,459.00,VWS V14.01,2013-12-26 16:28:00,
2013-12-26 11:29:00,76.4,72.6,30.11,NE,38,9.0,11.0,88,0.00,,FEW,0.03,591.00,VWS V14.01,2013-12-26 16:29:00,
2013-12-26 11:30:00,76.4,72.6,30.11,ENE,64,7.0,12.0,88,0.00,,FEW,0.03,629.00,VWS V14.01,2013-12-26 16:30:00,
2013-12-26 11:33:00,76.4,72.6,30.11,NE,40,6.0,10.0,88,0.00,,FEW,0.03,680.00,VWS V14.01,2013-12-26 16:33:00,
2013-12-26 11:34:00,76.4,72.6,30.11,ENE,59,8.0,11.0,88,0.00,,FEW,0.03,680.00,VWS V14.01,2013-12-26 16:34:00,
2013-12-26 11:35:00,76.4,72.6,30.11,NNE,26,5.0,11.0,88,0.00,,FEW,0.03,680.00,VWS V14.01,2013-12-26 16:35:00,
2013-12-26 11:36:00,76.3,72.5,30.11,NE,44,8.0,11.0,88,0.00,,FEW,0.03,234.00,VWS V14.01,2013-12-26 16:36:00,
2013-12-26 11:38:00,76.2,72.4,30.11,ENE,66,5.0,11.0,88,0.00,,FEW,0.03,207.00,VWS V14.01,2013-12-26 16:38:00,
2013-12-26 11:39:00,76.1,71.9,30.11,ENE,64,9.0,12.0,87,0.00,,FEW,0.03,211.00,VWS V14.01,2013-12-26 16:39:00,
2013-12-26 11:40:00,76.0,71.9,30.11,NE,43,10.0,12.0,87,0.00,,FEW,0.03,211.00,VWS V14.01,2013-12-26 16:40:00,
2013-12-26 11:41:00,75.9,72.1,30.11,NE,49,5.0,6.0,88,0.00,,FEW,0.03,221.00,VWS V14.01,2013-12-26 16:41:00,
2013-12-26 11:43:00,75.8,72.0,30.11,NE,40,6.0,10.0,88,0.00,,FEW,0.03,229.00,VWS V14.01,2013-12-26 16:43:00,
2013-12-26 11:45:00,75.7,71.9,30.11,NNE,32,5.0,10.0,88,0.00,,FEW,0.03,260.00,VWS V14.01,2013-12-26 16:45:00,
2013-12-26 11:47:00,75.6,71.8,30.10,NE,42,6.0,13.0,88,0.00,,FEW,0.03,255.00,VWS V14.01,2013-12-26 16:47:00,
2013-12-26 11:48:00,75.5,71.7,30.10,NE,40,3.0,13.0,88,0.00,,FEW,0.03,260.00,VWS V14.01,2013-12-26 16:48:00,
2013-12-26 11:49:00,75.5,71.7,30.10,NNE,28,6.0,13.0,88,0.00,,FEW,0.03,260.00,VWS V14.01,2013-12-26 16:49:00,
2013-12-26 11:50:00,75.4,71.6,30.10,NNE,25,10.0,13.0,88,0.00,,FEW,0.03,316.00,VWS V14.01,2013-12-26 16:50:00,
2013-12-26 11:52:00,75.3,71.8,30.10,NE,55,9.0,9.0,89,0.00,,FEW,0.03,320.00,VWS V14.01,2013-12-26 16:52:00,
2013-12-26 11:53:00,75.3,71.8,30.10,NNE,13,12.0,12.0,89,0.00,,FEW,0.03,429.00,VWS V14.01,2013-12-26 16:53:00,
2013-12-26 11:54:00,75.3,71.8,30.10,NE,44,5.0,12.0,89,0.00,,FEW,0.03,394.00,VWS V14.01,2013-12-26 16:54:00,
2013-12-26 11:55:00,75.3,71.8,30.10,NNE,32,6.0,12.0,89,0.00,,FEW,0.03,394.00,VWS V14.01,2013-12-26 16:55:00,
2013-12-26 11:57:00,75.7,72.6,30.10,NE,53,4.0,12.0,90,0.00,,FEW,0.03,809.00,VWS V14.01,2013-12-26 16:57:00,
2013-12-26 11:58:00,75.8,72.3,30.10,NE,44,7.0,12.0,89,0.00,,FEW,0.03,540.00,VWS V14.01,2013-12-26 16:58:00,
2013-12-26 11:59:00,75.8,72.3,30.10,NNE,26,10.0,12.0,89,0.00,,FEW,0.03,540.00,VWS V14.01,2013-12-26 16:59:00,
2013-12-26 12:00:00,75.7,72.2,30.10,NE,37,8.0,13.0,89,0.00,,FEW,0.03,540.00,VWS V14.01,2013-12-26 17:00:00,
2013-12-26 12:01:00,75.7,72.2,30.09,NE,42,8.0,13.0,89,0.00,,FEW,0.03,657.00,VWS V14.01,2013-12-26 17:01:00,
2013-12-26 12:02:00,75.7,72.2,30.09,ENE,57,9.0,9.0,89,0.00,,FEW,0.03,496.00,VWS V14.01,2013-12-26 17:02:00,
2013-12-26 12:03:00,75.8,72.3,30.09,NE,37,13.0,13.0,89,0.00,,FEW,0.03,496.00,VWS V14.01,2013-12-26 17:03:00,
2013-12-26 12:04:00,75.8,72.3,30.09,NE,34,5.0,13.0,89,0.00,,FEW,0.03,496.00,VWS V14.01,2013-12-26 17:04:00,
2013-12-26 12:05:00,75.8,72.3,30.09,NE,49,5.0,13.0,89,0.00,,FEW,0.03,496.00,VWS V14.01,2013-12-26 17:05:00,
2013-12-26 12:06:00,75.8,72.3,30.09,NE,53,6.0,13.0,89,0.00,,FEW,0.03,496.00,VWS V14.01,2013-12-26 17:06:00,
2013-12-26 12:08:00,75.6,72.1,30.09,North,5,8.0,13.0,89,0.00,,FEW,0.03,496.00,VWS V14.01,2013-12-26 17:08:00,
2013-12-26 12:09:00,75.7,72.2,30.09,NE,35,6.0,13.0,89,0.00,,FEW,0.03,496.00,VWS V14.01,2013-12-26 17:09:00,
2013-12-26 12:10:00,75.7,72.2,30.09,NNE,30,7.0,13.0,89,0.00,,FEW,0.03,696.00,VWS V14.01,2013-12-26 17:10:00,
2013-12-26 12:11:00,75.7,72.2,30.09,North,5,11.0,13.0,89,0.00,,FEW,0.03,737.00,VWS V14.01,2013-12-26 17:11:00,
2013-12-26 12:13:00,75.9,72.4,30.09,North,9,7.0,11.0,89,0.00,,FEW,0.03,758.00,VWS V14.01,2013-12-26 17:13:00,
2013-12-26 12:14:00,75.9,72.4,30.09,NNE,22,7.0,11.0,89,0.00,,FEW,0.03,719.00,VWS V14.01,2013-12-26 17:14:00,
2013-12-26 12:15:00,76.0,72.5,30.09,NE,55,3.0,11.0,89,0.00,,FEW,0.03,745.00,VWS V14.01,2013-12-26 17:15:00,
2013-12-26 12:16:00,76.2,72.7,30.08,NE,35,7.0,11.0,89,0.00,,FEW,0.03,729.00,VWS V14.01,2013-12-26 17:16:00,
2013-12-26 12:18:00,76.4,72.9,30.08,NE,50,4.0,11.0,89,0.00,,FEW,0.03,721.00,VWS V14.01,2013-12-26 17:18:00,
2013-12-26 12:19:00,76.4,72.9,30.08,NE,40,4.0,11.0,89,0.00,,FEW,0.03,698.00,VWS V14.01,2013-12-26 17:19:00,
2013-12-26 12:20:00,76.4,72.9,30.08,NE,36,4.0,11.0,89,0.00,,FEW,0.03,628.00,VWS V14.01,2013-12-26 17:20:00,
2013-12-26 12:21:00,76.4,72.9,30.08,ENE,70,9.0,11.0,89,0.00,,FEW,0.03,663.00,VWS V14.01,2013-12-26 17:21:00,
2013-12-26 12:23:00,76.4,72.6,30.08,NNE,30,5.0,9.0,88,0.00,,FEW,0.03,512.00,VWS V14.01,2013-12-26 17:23:00,
2013-12-26 12:24:00,76.3,72.5,30.08,NE,40,4.0,9.0,88,0.00,,FEW,0.03,512.00,VWS V14.01,2013-12-26 17:24:00,
2013-12-26 12:25:00,76.3,72.5,30.08,NE,50,4.0,9.0,88,0.00,,FEW,0.03,339.00,VWS V14.01,2013-12-26 17:25:00,
2013-12-26 12:26:00,76.2,72.7,30.08,NE,38,8.0,10.0,89,0.00,,FEW,0.03,281.00,VWS V14.01,2013-12-26 17:26:00,
2013-12-26 12:29:00,76.0,72.2,30.08,NE,53,3.0,10.0,88,0.00,,FEW,0.03,338.00,VWS V14.01,2013-12-26 17:29:00,
2013-12-26 12:30:00,76.0,72.5,30.08,NE,45,3.0,10.0,89,0.00,,FEW,0.03,397.00,VWS V14.01,2013-12-26 17:30:00,
2013-12-26 12:31:00,75.9,72.4,30.08,NE,55,4.0,10.0,89,0.00,,FEW,0.03,278.00,VWS V14.01,2013-12-26 17:31:00,
2013-12-26 12:32:00,75.9,72.4,30.08,NE,42,7.0,7.0,89,0.00,,FEW,0.03,278.00,VWS V14.01,2013-12-26 17:32:00,
2013-12-26 12:34:00,75.7,72.2,30.08,NE,48,5.0,11.0,89,0.00,,FEW,0.03,272.00,VWS V14.01,2013-12-26 17:34:00,
2013-12-26 12:35:00,75.7,72.2,30.08,NE,39,6.0,11.0,89,0.00,,FEW,0.03,272.00,VWS V14.01,2013-12-26 17:35:00,
2013-12-26 12:36:00,75.7,72.2,30.08,NNE,27,7.0,11.0,89,0.00,,FEW,0.03,244.00,VWS V14.01,2013-12-26 17:36:00,
2013-12-26 12:37:00,75.7,72.2,30.08,NE,40,3.0,13.0,89,0.00,,FEW,0.03,258.00,VWS V14.01,2013-12-26 17:37:00,
2013-12-26 12:39:00,75.8,72.3,30.08,NNE,28,7.0,13.0,89,0.00,,FEW,0.03,373.00,VWS V14.01,2013-12-26 17:39:00,
2013-12-26 12:40:00,75.8,72.3,30.08,NE,46,2.0,13.0,89,0.00,,FEW,0.03,367.00,VWS V14.01,2013-12-26 17:40:00,
2013-12-26 12:41:00,75.8,72.3,30.08,NE,46,3.0,13.0,89,0.00,,FEW,0.03,403.00,VWS V14.01,2013-12-26 17:41:00,
2013-12-26 12:43:00,75.8,72.3,30.08,NNE,26,6.0,9.0,89,0.00,,FEW,0.03,439.00,VWS V14.01,2013-12-26 17:43:00,
2013-12-26 12:44:00,75.8,72.3,30.08,NNE,22,6.0,9.0,89,0.00,,FEW,0.03,527.00,VWS V14.01,2013-12-26 17:44:00,
2013-12-26 12:45:00,75.8,72.3,30.08,NE,50,3.0,9.0,89,0.00,,FEW,0.03,527.00,VWS V14.01,2013-12-26 17:45:00,
2013-12-26 12:46:00,75.9,72.8,30.07,NE,50,5.0,9.0,90,0.00,,FEW,0.03,543.00,VWS V14.01,2013-12-26 17:46:00,
2013-12-26 12:48:00,76.1,73.0,30.07,NE,40,4.0,9.0,90,0.00,,FEW,0.03,629.00,VWS V14.01,2013-12-26 17:48:00,
2013-12-26 12:50:00,76.3,73.2,30.07,NNE,27,6.0,9.0,90,0.00,,FEW,0.03,582.00,VWS V14.01,2013-12-26 17:50:00,
2013-12-26 12:51:00,76.5,73.0,30.07,ENE,69,7.0,7.0,89,0.00,,FEW,0.03,552.00,VWS V14.01,2013-12-26 17:51:00,
2013-12-26 12:53:00,76.5,73.0,30.07,ENE,71,4.0,8.0,89,0.00,,FEW,0.03,492.00,VWS V14.01,2013-12-26 17:53:00,
2013-12-26 12:55:00,76.7,73.2,30.07,NE,51,1.0,8.0,89,0.00,,FEW,0.03,563.00,VWS V14.01,2013-12-26 17:55:00,
2013-12-26 12:56:00,77.0,73.5,30.07,NNE,24,8.0,8.0,89,0.00,,FEW,0.03,594.00,VWS V14.01,2013-12-26 17:56:00,
2013-12-26 12:57:00,77.0,73.5,30.07,ENE,60,2.0,8.0,89,0.00,,FEW,0.03,512.00,VWS V14.01,2013-12-26 17:57:00,
2013-12-26 12:59:00,77.2,73.4,30.07,NNE,32,4.0,8.0,88,0.00,,FEW,0.03,417.00,VWS V14.01,2013-12-26 17:59:00,
2013-12-26 13:00:00,77.2,73.4,30.06,ENE,65,3.0,8.0,88,0.00,,FEW,0.03,373.00,VWS V14.01,2013-12-26 18:00:00,
2013-12-26 13:01:00,77.2,73.4,30.06,NE,47,5.0,7.0,88,0.00,,FEW,0.03,295.00,VWS V14.01,2013-12-26 18:01:00,
2013-12-26 13:02:00,77.2,73.4,30.06,NE,47,5.0,7.0,88,0.00,,FEW,0.03,295.00,VWS V14.01,2013-12-26 18:02:00,
2013-12-26 13:04:00,77.0,73.2,30.06,NNE,17,6.0,9.0,88,0.00,,FEW,0.03,313.00,VWS V14.01,2013-12-26 18:04:00,
2013-12-26 13:05:00,76.9,73.1,30.06,ENE,71,4.0,9.0,88,0.00,,FEW,0.03,722.00,VWS V14.01,2013-12-26 18:05:00,
2013-12-26 13:06:00,77.0,73.2,30.06,NE,36,5.0,9.0,88,0.00,,FEW,0.03,719.00,VWS V14.01,2013-12-26 18:06:00,
2013-12-26 13:07:00,77.0,73.2,30.06,NE,40,7.0,9.0,88,0.00,,FEW,0.03,756.00,VWS V14.01,2013-12-26 18:07:00,
2013-12-26 13:09:00,77.3,73.5,30.06,NNE,27,6.0,9.0,88,0.00,,FEW,0.03,786.00,VWS V14.01,2013-12-26 18:09:00,
2013-12-26 13:10:00,77.4,73.6,30.06,NE,36,8.0,9.0,88,0.00,,FEW,0.03,775.00,VWS V14.01,2013-12-26 18:10:00,
2013-12-26 13:11:00,77.5,73.7,30.06,NE,55,4.0,10.0,88,0.00,,FEW,0.03,775.00,VWS V14.01,2013-12-26 18:11:00,
2013-12-26 13:12:00,77.6,73.8,30.06,NE,55,8.0,10.0,88,0.00,,FEW,0.03,779.00,VWS V14.01,2013-12-26 18:12:00,
2013-12-26 13:14:00,77.7,73.5,30.06,NE,49,5.0,11.0,87,0.00,,FEW,0.03,719.00,VWS V14.01,2013-12-26 18:14:00,
2013-12-26 13:16:00,77.6,73.4,30.05,NE,44,4.0,11.0,87,0.00,,FEW,0.03,724.00,VWS V14.01,2013-12-26 18:16:00,
2013-12-26 13:17:00,77.6,73.4,30.05,ENE,57,4.0,11.0,87,0.00,,FEW,0.03,700.00,VWS V14.01,2013-12-26 18:17:00,
2013-12-26 13:18:00,77.6,73.4,30.05,NE,42,5.0,11.0,87,0.00,,FEW,0.03,700.00,VWS V14.01,2013-12-26 18:18:00,
2013-12-26 13:19:00,77.6,73.4,30.05,NNE,22,4.0,11.0,87,0.00,,FEW,0.03,541.00,VWS V14.01,2013-12-26 18:19:00,
2013-12-26 13:21:00,77.5,73.3,30.05,NE,49,3.0,6.0,87,0.00,,FEW,0.03,485.00,VWS V14.01,2013-12-26 18:21:00,
2013-12-26 13:22:00,77.5,73.3,30.05,NE,46,5.0,11.0,87,0.00,,FEW,0.03,274.00,VWS V14.01,2013-12-26 18:22:00,
2013-12-26 13:23:00,77.5,73.3,30.05,NE,54,8.0,11.0,87,0.00,,FEW,0.03,250.00,VWS V14.01,2013-12-26 18:23:00,
2013-12-26 13:25:00,77.5,73.3,30.05,ENE,70,5.0,11.0,87,0.00,,FEW,0.03,251.00,VWS V14.01,2013-12-26 18:25:00,
2013-12-26 13:26:00,77.5,73.3,30.05,NE,34,4.0,11.0,87,0.00,,FEW,0.03,251.00,VWS V14.01,2013-12-26 18:26:00,
2013-12-26 13:27:00,77.4,73.2,30.05,NE,43,6.0,11.0,87,0.00,,FEW,0.03,253.00,VWS V14.01,2013-12-26 18:27:00,
2013-12-26 13:28:00,77.4,72.9,30.05,NNE,31,8.0,11.0,86,0.00,,FEW,0.03,255.00,VWS V14.01,2013-12-26 18:28:00,
2013-12-26 13:30:00,77.3,73.1,30.05,NE,38,9.0,11.0,87,0.00,,FEW,0.03,265.00,VWS V14.01,2013-12-26 18:30:00,
2013-12-26 13:31:00,77.2,73.0,30.03,NE,45,6.0,10.0,87,0.00,,FEW,0.03,276.00,VWS V14.01,2013-12-26 18:31:00,
2013-12-26 13:32:00,77.2,73.0,30.03,NE,34,4.0,10.0,87,0.00,,FEW,0.03,276.00,VWS V14.01,2013-12-26 18:32:00,
2013-12-26 13:33:00,77.1,72.9,30.03,NE,45,4.0,10.0,87,0.00,,FEW,0.03,297.00,VWS V14.01,2013-12-26 18:33:00,
2013-12-26 13:35:00,77.2,73.0,30.03,NE,47,2.0,10.0,87,0.00,,FEW,0.03,288.00,VWS V14.01,2013-12-26 18:35:00,
2013-12-26 13:36:00,77.2,73.0,30.03,NE,34,6.0,11.0,87,0.00,,FEW,0.03,295.00,VWS V14.01,2013-12-26 18:36:00,
2013-12-26 13:37:00,77.1,72.9,30.03,NE,34,7.0,11.0,87,0.00,,FEW,0.03,295.00,VWS V14.01,2013-12-26 18:37:00,
2013-12-26 13:38:00,77.1,72.9,30.03,NE,42,6.0,11.0,87,0.00,,FEW,0.03,294.00,VWS V14.01,2013-12-26 18:38:00,
2013-12-26 13:40:00,77.0,72.8,30.03,NE,35,4.0,11.0,87,0.00,,FEW,0.03,397.00,VWS V14.01,2013-12-26 18:40:00,
2013-12-26 13:42:00,77.0,73.2,30.03,NNE,17,7.0,8.0,88,0.00,,FEW,0.03,380.00,VWS V14.01,2013-12-26 18:42:00,
2013-12-26 13:43:00,77.0,73.2,30.03,NE,49,2.0,8.0,88,0.00,,FEW,0.03,397.00,VWS V14.01,2013-12-26 18:43:00,
2013-12-26 13:44:00,77.0,73.2,30.03,NE,41,8.0,8.0,88,0.00,,FEW,0.03,420.00,VWS V14.01,2013-12-26 18:44:00,
2013-12-26 13:45:00,77.0,73.2,30.03,NE,49,2.0,8.0,88,0.00,,FEW,0.03,461.00,VWS V14.01,2013-12-26 18:45:00,
2013-12-26 13:47:00,77.1,73.3,30.03,ENE,68,2.0,8.0,88,0.00,,FEW,0.03,578.00,VWS V14.01,2013-12-26 18:47:00,
2013-12-26 13:48:00,77.2,73.4,30.03,NNE,28,4.0,8.0,88,0.00,,FEW,0.03,578.00,VWS V14.01,2013-12-26 18:48:00,
2013-12-26 13:49:00,77.4,73.6,30.03,NE,37,4.0,8.0,88,0.00,,FEW,0.03,696.00,VWS V14.01,2013-12-26 18:49:00,
2013-12-26 13:50:00,77.5,73.7,30.03,NE,36,3.0,8.0,88,0.00,,FEW,0.03,731.00,VWS V14.01,2013-12-26 18:50:00,
2013-12-26 13:52:00,77.6,73.4,30.03,NE,43,5.0,9.0,87,0.00,,FEW,0.03,724.00,VWS V14.01,2013-12-26 18:52:00,
2013-12-26 13:53:00,77.6,73.4,30.03,North,10,4.0,9.0,87,0.00,,FEW,0.03,696.00,VWS V14.01,2013-12-26 18:53:00,
2013-12-26 13:54:00,77.8,73.6,30.03,ENE,76,4.0,9.0,87,0.00,,FEW,0.03,728.00,VWS V14.01,2013-12-26 18:54:00,
2013-12-26 13:55:00,78.0,73.8,30.03,NE,53,5.0,9.0,87,0.00,,FEW,0.03,715.00,VWS V14.01,2013-12-26 18:55:00,
2013-12-26 13:57:00,78.0,73.5,30.03,NE,44,6.0,9.0,86,0.00,,FEW,0.03,708.00,VWS V14.01,2013-12-26 18:57:00,
2013-12-26 13:58:00,78.0,73.5,30.03,NE,38,4.0,9.0,86,0.00,,FEW,0.03,694.00,VWS V14.01,2013-12-26 18:58:00,
2013-12-26 14:00:00,78.3,73.8,30.03,NE,43,4.0,9.0,86,0.00,,FEW,0.03,594.00,VWS V14.01,2013-12-26 19:00:00,
2013-12-26 14:02:00,78.4,73.9,30.03,NE,39,7.0,7.0,86,0.00,,FEW,0.03,478.00,VWS V14.01,2013-12-26 19:02:00,
2013-12-26 14:03:00,78.3,73.4,30.03,ENE,59,8.0,8.0,85,0.00,,FEW,0.03,478.00,VWS V14.01,2013-12-26 19:03:00,
2013-12-26 14:04:00,78.3,73.4,30.03,NNE,27,7.0,9.0,85,0.00,,FEW,0.03,478.00,VWS V14.01,2013-12-26 19:04:00,
2013-12-26 14:05:00,78.1,73.2,30.03,NE,35,5.0,10.0,85,0.00,,FEW,0.03,454.00,VWS V14.01,2013-12-26 19:05:00,
2013-12-26 14:06:00,78.1,73.2,30.03,NE,49,6.0,10.0,85,0.00,,FEW,0.03,454.00,VWS V14.01,2013-12-26 19:06:00,
2013-12-26 14:07:00,78.1,73.2,30.03,NE,39,5.0,10.0,85,0.00,,FEW,0.03,454.00,VWS V14.01,2013-12-26 19:07:00,
2013-12-26 14:08:00,78.1,73.6,30.03,ENE,58,7.0,10.0,86,0.00,,FEW,0.03,686.00,VWS V14.01,2013-12-26 19:08:00,
2013-12-26 14:09:00,78.1,73.6,30.03,NE,42,5.0,10.0,86,0.00,,FEW,0.03,686.00,VWS V14.01,2013-12-26 19:09:00,
2013-12-26 14:10:00,78.2,73.7,30.03,NE,49,5.0,10.0,86,0.00,,FEW,0.03,650.00,VWS V14.01,2013-12-26 19:10:00,
2013-12-26 14:11:00,78.2,73.7,30.03,NNE,32,3.0,10.0,86,0.00,,FEW,0.03,563.00,VWS V14.01,2013-12-26 19:11:00,
2013-12-26 14:12:00,78.3,73.8,30.03,NE,42,4.0,6.0,86,0.00,,FEW,0.03,563.00,VWS V14.01,2013-12-26 19:12:00,
2013-12-26 14:14:00,78.2,73.3,30.03,NNE,31,6.0,8.0,85,0.00,,FEW,0.03,338.00,VWS V14.01,2013-12-26 19:14:00,
2013-12-26 14:15:00,78.2,73.7,30.03,NE,40,7.0,9.0,86,0.00,,FEW,0.03,338.00,VWS V14.01,2013-12-26 19:15:00,
2013-12-26 14:16:00,78.2,73.7,30.03,ENE,63,9.0,9.0,86,0.00,,FEW,0.03,338.00,VWS V14.01,2013-12-26 19:16:00,
2013-12-26 14:17:00,78.1,73.6,30.03,NE,38,7.0,9.0,86,0.00,,FEW,0.03,218.00,VWS V14.01,2013-12-26 19:17:00,
2013-12-26 14:19:00,78.1,73.6,30.03,NE,49,4.0,9.0,86,0.00,,FEW,0.03,165.00,VWS V14.01,2013-12-26 19:19:00,
2013-12-26 14:20:00,78.0,73.1,30.03,NE,54,5.0,9.0,85,0.00,,FEW,0.03,111.00,VWS V14.01,2013-12-26 19:20:00,
2013-12-26 14:21:00,78.0,73.1,30.03,NE,38,6.0,9.0,85,0.00,,FEW,0.03,111.00,VWS V14.01,2013-12-26 19:21:00,
2013-12-26 14:22:00,78.0,73.5,30.03,ENE,57,3.0,7.0,86,0.00,,FEW,0.03,111.00,VWS V14.01,2013-12-26 19:22:00,
2013-12-26 14:24:00,78.0,73.5,30.03,NE,37,4.0,8.0,86,0.00,,FEW,0.03,163.00,VWS V14.01,2013-12-26 19:24:00,
2013-12-26 14:25:00,78.0,73.5,30.03,NE,44,2.0,8.0,86,0.00,,FEW,0.03,163.00,VWS V14.01,2013-12-26 19:25:00,
2013-12-26 14:26:00,77.9,73.4,30.03,NE,48,3.0,8.0,86,0.00,,FEW,0.03,239.00,VWS V14.01,2013-12-26 19:26:00,
2013-12-26 14:27:00,77.9,73.4,30.03,NNE,24,7.0,9.0,86,0.00,,FEW,0.03,186.00,VWS V14.01,2013-12-26 19:27:00,
2013-12-26 14:29:00,77.9,73.4,30.03,NE,49,4.0,9.0,86,0.00,,FEW,0.03,366.00,VWS V14.01,2013-12-26 19:29:00,
2013-12-26 14:30:00,77.9,73.4,30.03,NNE,33,8.0,9.0,86,0.00,,FEW,0.03,366.00,VWS V14.01,2013-12-26 19:30:00,
2013-12-26 14:31:00,77.9,73.7,30.03,NNE,21,6.0,9.0,87,0.00,,FEW,0.03,366.00,VWS V14.01,2013-12-26 19:31:00,
2013-12-26 14:33:00,78.0,73.8,30.03,NE,36,1.0,4.0,87,0.00,,FEW,0.03,700.00,VWS V14.01,2013-12-26 19:33:00,
2013-12-26 14:34:00,78.3,74.1,30.03,NE,38,3.0,8.0,87,0.00,,FEW,0.03,700.00,VWS V14.01,2013-12-26 19:34:00,
2013-12-26 14:35:00,78.4,73.9,30.03,East,85,3.0,8.0,86,0.00,,FEW,0.03,700.00,VWS V14.01,2013-12-26 19:35:00,
2013-12-26 14:36:00,78.5,74.0,30.03,NNE,30,5.0,8.0,86,0.00,,FEW,0.03,700.00,VWS V14.01,2013-12-26 19:36:00,
2013-12-26 14:37:00,78.5,74.0,30.03,NNE,21,4.0,8.0,86,0.00,,FEW,0.03,700.00,VWS V14.01,2013-12-26 19:37:00,
2013-12-26 14:38:00,78.5,74.0,30.03,NE,40,7.0,8.0,86,0.00,,FEW,0.03,700.00,VWS V14.01,2013-12-26 19:38:00,
2013-12-26 14:39:00,78.5,74.0,30.03,East,82,7.0,10.0,86,0.00,,FEW,0.03,700.00,VWS V14.01,2013-12-26 19:39:00,
2013-12-26 14:40:00,78.6,74.1,30.03,NE,55,1.0,10.0,86,0.00,,FEW,0.03,700.00,VWS V14.01,2013-12-26 19:40:00,
2013-12-26 14:42:00,78.6,73.7,30.03,NE,52,5.0,8.0,85,0.00,,FEW,0.03,255.00,VWS V14.01,2013-12-26 19:42:00,
2013-12-26 14:43:00,78.5,74.0,30.03,NE,42,4.0,8.0,86,0.00,,FEW,0.03,255.00,VWS V14.01,2013-12-26 19:43:00,
2013-12-26 14:44:00,78.6,74.1,30.03,NNE,30,4.0,8.0,86,0.00,,FEW,0.03,371.00,VWS V14.01,2013-12-26 19:44:00,
2013-12-26 14:45:00,78.6,73.7,30.03,NE,42,5.0,8.0,85,0.00,,FEW,0.03,371.00,VWS V14.01,2013-12-26 19:45:00,
2013-12-26 14:46:00,78.5,73.6,30.03,NNE,30,9.0,9.0,85,0.00,,FEW,0.03,371.00,VWS V14.01,2013-12-26 19:46:00,
2013-12-26 14:47:00,78.6,73.7,30.03,NE,35,6.0,9.0,85,0.00,,FEW,0.03,371.00,VWS V14.01,2013-12-26 19:47:00,
2013-12-26 14:48:00,78.6,73.7,30.03,NNE,30,6.0,9.0,85,0.00,,FEW,0.03,185.00,VWS V14.01,2013-12-26 19:48:00,
2013-12-26 14:50:00,78.5,73.6,30.03,NE,44,5.0,9.0,85,0.00,,FEW,0.03,155.00,VWS V14.01,2013-12-26 19:50:00,
2013-12-26 14:51:00,78.4,73.5,30.03,NE,34,10.0,10.0,85,0.00,,FEW,0.03,141.00,VWS V14.01,2013-12-26 19:51:00,
2013-12-26 14:52:00,78.4,73.5,30.03,NE,34,10.0,10.0,85,0.00,,FEW,0.03,141.00,VWS V14.01,2013-12-26 19:52:00,
2013-12-26 14:53:00,78.3,73.4,30.03,NE,36,10.0,10.0,85,0.00,,FEW,0.03,102.00,VWS V14.01,2013-12-26 19:53:00,
2013-12-26 14:55:00,78.2,73.3,30.03,NNE,20,9.0,11.0,85,0.00,,FEW,0.03,81.00,VWS V14.01,2013-12-26 19:55:00,
2013-12-26 14:57:00,78.0,73.1,30.03,NE,43,7.0,11.0,85,0.00,,FEW,0.03,74.00,VWS V14.01,2013-12-26 19:57:00,
2013-12-26 14:58:00,78.0,73.1,30.03,NE,37,6.0,11.0,85,0.00,,FEW,0.03,90.00,VWS V14.01,2013-12-26 19:58:00,
2013-12-26 15:00:00,77.8,73.3,30.03,NNE,30,10.0,11.0,86,0.00,,FEW,0.03,128.00,VWS V14.01,2013-12-26 20:00:00,
2013-12-26 15:02:00,77.8,73.3,30.02,ENE,67,1.0,2.0,86,0.00,,FEW,0.03,234.00,VWS V14.01,2013-12-26 20:02:00,
2013-12-26 15:03:00,77.8,73.3,30.02,NE,39,0.0,3.0,86,0.00,,FEW,0.03,234.00,VWS V14.01,2013-12-26 20:03:00,
2013-12-26 15:05:00,77.9,73.7,30.02,East,86,0.0,8.0,87,0.00,,FEW,0.03,288.00,VWS V14.01,2013-12-26 20:05:00,
2013-12-26 15:07:00,78.0,73.8,30.02,ENE,69,0.0,8.0,87,0.00,,FEW,0.03,471.00,VWS V14.01,2013-12-26 20:07:00,
2013-12-26 15:08:00,78.1,73.9,30.02,ENE,69,0.0,8.0,87,0.00,,FEW,0.03,496.00,VWS V14.01,2013-12-26 20:08:00,
2013-12-26 15:09:00,78.3,74.1,30.02,East,98,3.0,8.0,87,0.00,,FEW,0.03,554.00,VWS V14.01,2013-12-26 20:09:00,
2013-12-26 15:10:00,78.5,73.3,30.02,East,80,3.0,8.0,84,0.00,,FEW,0.03,584.00,VWS V14.01,2013-12-26 20:10:00,
2013-12-26 15:11:00,78.7,73.5,30.02,ENE,74,3.0,8.0,84,0.00,,FEW,0.03,584.00,VWS V14.01,2013-12-26 20:11:00,
2013-12-26 15:12:00,79.0,73.4,30.02,NNE,22,3.0,3.0,83,0.00,,FEW,0.03,584.00,VWS V14.01,2013-12-26 20:12:00,
2013-12-26 15:13:00,79.3,73.7,30.02,ENE,67,2.0,3.0,83,0.00,,FEW,0.03,534.00,VWS V14.01,2013-12-26 20:13:00,
2013-12-26 15:14:00,79.6,74.0,30.02,NNE,23,1.0,3.0,83,0.00,,FEW,0.03,519.00,VWS V14.01,2013-12-26 20:14:00,
2013-12-26 15:15:00,79.8,74.2,30.02,ENE,73,2.0,7.0,83,0.00,,FEW,0.03,492.00,VWS V14.01,2013-12-26 20:15:00,
2013-12-26 15:16:00,79.9,74.3,30.02,ENE,76,0.0,7.0,83,0.00,,FEW,0.03,492.00,VWS V14.01,2013-12-26 20:16:00,
2013-12-26 15:17:00,79.9,74.6,30.02,NE,36,3.0,7.0,84,0.00,,FEW,0.03,160.00,VWS V14.01,2013-12-26 20:17:00,
2013-12-26 15:18:00,79.9,74.3,30.02,NE,48,0.0,7.0,83,0.00,,FEW,0.03,160.00,VWS V14.01,2013-12-26 20:18:00,
2013-12-26 15:19:00,79.9,74.3,30.02,NE,52,0.0,7.0,83,0.00,,FEW,0.03,160.00,VWS V14.01,2013-12-26 20:19:00,
2013-12-26 15:20:00,79.9,74.3,30.02,NE,52,1.0,7.0,83,0.00,,FEW,0.03,114.00,VWS V14.01,2013-12-26 20:20:00,
2013-12-26 15:21:00,79.9,74.3,30.02,NE,52,1.0,7.0,83,0.00,,FEW,0.03,111.00,VWS V14.01,2013-12-26 20:21:00,
2013-12-26 15:23:00,79.9,74.3,30.02,NE,54,0.0,3.0,83,0.00,,FEW,0.03,104.00,VWS V14.01,2013-12-26 20:23:00,
2013-12-26 15:24:00,79.8,74.2,30.02,NE,52,2.0,3.0,83,0.00,,FEW,0.03,113.00,VWS V14.01,2013-12-26 20:24:00,
2013-12-26 15:25:00,79.8,74.2,30.02,ESE,111,1.0,4.0,83,0.00,,FEW,0.03,121.00,VWS V14.01,2013-12-26 20:25:00,
2013-12-26 15:26:00,79.7,74.1,30.02,East,98,3.0,5.0,83,0.00,,FEW,0.03,141.00,VWS V14.01,2013-12-26 20:26:00,
2013-12-26 15:28:00,79.6,74.0,30.02,NNE,30,4.0,5.0,83,0.00,,FEW,0.03,125.00,VWS V14.01,2013-12-26 20:28:00,
2013-12-26 15:29:00,79.5,73.9,30.02,ENE,75,3.0,5.0,83,0.00,,FEW,0.03,134.00,VWS V14.01,2013-12-26 20:29:00,
2013-12-26 15:30:00,79.4,73.8,30.02,ENE,71,1.0,5.0,83,0.00,,FEW,0.03,134.00,VWS V14.01,2013-12-26 20:30:00,
2013-12-26 15:31:00,79.4,73.8,30.02,ENE,70,0.0,5.0,83,0.00,,FEW,0.03,146.00,VWS V14.01,2013-12-26 20:31:00,
2013-12-26 15:33:00,79.2,73.6,30.02,NE,55,4.0,8.0,83,0.00,,FEW,0.03,162.00,VWS V14.01,2013-12-26 20:33:00,
2013-12-26 15:34:00,79.2,73.6,30.02,ENE,75,2.0,8.0,83,0.00,,FEW,0.03,162.00,VWS V14.01,2013-12-26 20:34:00,
2013-12-26 15:35:00,79.1,73.5,30.02,ENE,74,3.0,8.0,83,0.00,,FEW,0.03,169.00,VWS V14.01,2013-12-26 20:35:00,
2013-12-26 15:36:00,78.9,73.3,30.02,ENE,57,5.0,8.0,83,0.00,,FEW,0.03,169.00,VWS V14.01,2013-12-26 20:36:00,
2013-12-26 15:38:00,78.6,72.7,30.02,NE,45,1.0,8.0,82,0.00,,FEW,0.03,169.00,VWS V14.01,2013-12-26 20:38:00,
2013-12-26 15:39:00,78.6,72.7,30.02,ENE,70,3.0,8.0,82,0.00,,FEW,0.03,169.00,VWS V14.01,2013-12-26 20:39:00,
2013-12-26 15:40:00,78.6,72.7,30.02,ENE,64,3.0,8.0,82,0.00,,FEW,0.03,167.00,VWS V14.01,2013-12-26 20:40:00,
2013-12-26 15:41:00,78.5,72.6,30.02,NE,55,3.0,8.0,82,0.00,,FEW,0.03,165.00,VWS V14.01,2013-12-26 20:41:00,
2013-12-26 15:44:00,78.4,72.4,30.02,SE,135,2.0,5.0,82,0.00,,FEW,0.03,165.00,VWS V14.01,2013-12-26 20:44:00,
2013-12-26 15:45:00,78.4,72.1,30.02,NE,43,1.0,5.0,81,0.00,,FEW,0.03,167.00,VWS V14.01,2013-12-26 20:45:00,
2013-12-26 15:46:00,78.4,72.1,30.02,NE,53,3.0,5.0,81,0.00,,FEW,0.03,169.00,VWS V14.01,2013-12-26 20:46:00,
2013-12-26 15:49:00,78.4,72.1,30.02,East,101,1.0,5.0,81,0.00,,FEW,0.03,190.00,VWS V14.01,2013-12-26 20:49:00,
2013-12-26 15:50:00,78.4,72.1,30.02,East,97,0.0,5.0,81,0.00,,FEW,0.03,334.00,VWS V14.01,2013-12-26 20:50:00,
2013-12-26 15:51:00,78.5,72.2,30.02,ENE,66,1.0,5.0,81,0.00,,FEW,0.03,385.00,VWS V14.01,2013-12-26 20:51:00,
2013-12-26 15:54:00,78.7,72.4,30.02,ENE,71,1.0,6.0,81,0.00,,FEW,0.03,446.00,VWS V14.01,2013-12-26 20:54:00,
2013-12-26 15:55:00,78.9,72.6,30.02,NE,44,0.0,6.0,81,0.00,,FEW,0.03,446.00,VWS V14.01,2013-12-26 20:55:00,
2013-12-26 15:56:00,79.0,72.7,30.02,East,79,2.0,6.0,81,0.00,,FEW,0.03,334.00,VWS V14.01,2013-12-26 20:56:00,
2013-12-26 15:57:00,79.2,72.9,30.02,East,85,3.0,6.0,81,0.00,,FEW,0.03,302.00,VWS V14.01,2013-12-26 20:57:00,
2013-12-26 15:59:00,79.2,72.5,30.02,SE,125,5.0,6.0,80,0.00,,FEW,0.03,220.00,VWS V14.01,2013-12-26 20:59:00,
2013-12-26 16:00:00,79.2,72.1,30.02,East,100,3.0,8.0,79,0.00,,FEW,0.03,211.00,VWS V14.01,2013-12-26 21:00:00,
2013-12-26 16:01:00,79.2,72.1,30.02,ENE,63,2.0,8.0,79,0.00,,FEW,0.03,211.00,VWS V14.01,2013-12-26 21:01:00,
2013-12-26 16:02:00,79.2,72.1,30.02,ENE,78,2.0,3.0,79,0.00,,FEW,0.03,202.00,VWS V14.01,2013-12-26 21:02:00,
2013-12-26 16:04:00,79.1,72.0,30.02,East,86,3.0,4.0,79,0.00,,FEW,0.03,227.00,VWS V14.01,2013-12-26 21:04:00,
2013-12-26 16:05:00,79.1,72.0,30.02,ESE,105,1.0,7.0,79,0.00,,FEW,0.03,227.00,VWS V14.01,2013-12-26 21:05:00,
2013-12-26 16:06:00,79.1,72.0,30.02,East,95,1.0,7.0,79,0.00,,FEW,0.03,227.00,VWS V14.01,2013-12-26 21:06:00,
2013-12-26 16:07:00,79.1,72.0,30.02,East,79,2.0,7.0,79,0.00,,FEW,0.03,209.00,VWS V14.01,2013-12-26 21:07:00,
2013-12-26 16:09:00,79.1,72.0,30.02,East,99,2.0,7.0,79,0.00,,FEW,0.03,167.00,VWS V14.01,2013-12-26 21:09:00,
2013-12-26 16:10:00,79.1,72.0,30.02,East,93,3.0,7.0,79,0.00,,FEW,0.03,162.00,VWS V14.01,2013-12-26 21:10:00,
2013-12-26 16:11:00,79.1,72.0,30.02,ESE,108,2.0,7.0,79,0.00,,FEW,0.03,160.00,VWS V14.01,2013-12-26 21:11:00,
2013-12-26 16:12:00,79.1,72.0,30.02,East,86,3.0,7.0,79,0.00,,FEW,0.03,65.00,VWS V14.01,2013-12-26 21:12:00,
2013-12-26 16:14:00,79.0,71.6,30.02,ESE,122,2.0,7.0,78,0.00,,FEW,0.03,58.00,VWS V14.01,2013-12-26 21:14:00,
2013-12-26 16:15:00,78.9,71.5,30.02,ENE,73,3.0,7.0,78,0.00,,FEW,0.03,58.00,VWS V14.01,2013-12-26 21:15:00,
2013-12-26 16:16:00,78.8,71.4,30.02,East,84,5.0,7.0,78,0.00,,FEW,0.03,63.00,VWS V14.01,2013-12-26 21:16:00,
2013-12-26 16:17:00,78.7,71.3,30.02,ENE,74,3.0,7.0,78,0.00,,FEW,0.03,77.00,VWS V14.01,2013-12-26 21:17:00,
2013-12-26 16:20:00,78.6,71.2,30.02,ENE,69,2.0,7.0,78,0.00,,FEW,0.03,33.00,VWS V14.01,2013-12-26 21:20:00,
2013-12-26 16:21:00,78.6,71.2,30.02,East,79,2.0,8.0,78,0.00,,FEW,0.03,25.00,VWS V14.01,2013-12-26 21:21:00,
2013-12-26 16:22:00,78.7,71.3,30.02,ENE,57,3.0,3.0,78,0.00,,FEW,0.03,25.00,VWS V14.01,2013-12-26 21:22:00,
2013-12-26 16:25:00,78.7,71.3,30.02,East,94,0.0,4.0,78,0.00,,FEW,0.03,98.00,VWS V14.01,2013-12-26 21:25:00,
2013-12-26 16:26:00,78.7,71.6,30.02,ENE,78,3.0,4.0,79,0.00,,FEW,0.03,98.00,VWS V14.01,2013-12-26 21:26:00,
2013-12-26 16:27:00,78.7,71.3,30.02,ENE,73,1.0,5.0,78,0.00,,FEW,0.03,98.00,VWS V14.01,2013-12-26 21:27:00,
2013-12-26 16:30:00,78.6,71.2,30.02,ENE,65,2.0,6.0,78,0.00,,FEW,0.03,100.00,VWS V14.01,2013-12-26 21:30:00,
2013-12-26 16:31:00,78.6,71.2,30.02,ENE,65,1.0,6.0,78,0.00,,FEW,0.03,104.00,VWS V14.01,2013-12-26 21:31:00,
2013-12-26 16:32:00,78.6,71.2,30.02,ENE,57,0.0,2.0,78,0.00,,FEW,0.03,155.00,VWS V14.01,2013-12-26 21:32:00,
2013-12-26 16:35:00,78.3,71.3,30.02,ENE,78,3.0,4.0,79,0.00,,FEW,0.03,160.00,VWS V14.01,2013-12-26 21:35:00,
2013-12-26 16:36:00,78.3,71.3,30.02,East,90,0.0,4.0,79,0.00,,FEW,0.03,160.00,VWS V14.01,2013-12-26 21:36:00,
2013-12-26 16:37:00,78.2,71.2,30.02,ENE,60,3.0,4.0,79,0.00,,FEW,0.03,149.00,VWS V14.01,2013-12-26 21:37:00,
2013-12-26 16:41:00,78.3,71.6,30.02,East,98,3.0,4.0,80,0.00,,FEW,0.03,197.00,VWS V14.01,2013-12-26 21:41:00,
2013-12-26 16:42:00,78.3,71.6,30.02,ENE,68,5.0,5.0,80,0.00,,FEW,0.03,197.00,VWS V14.01,2013-12-26 21:42:00,
2013-12-26 16:46:00,78.1,71.4,30.02,NE,55,2.0,6.0,80,0.00,,FEW,0.03,98.00,VWS V14.01,2013-12-26 21:46:00,
2013-12-26 16:47:00,78.1,71.4,30.02,ENE,73,2.0,6.0,80,0.00,,FEW,0.03,98.00,VWS V14.01,2013-12-26 21:47:00,
2013-12-26 16:48:00,78.1,71.1,30.02,East,80,2.0,7.0,79,0.00,,FEW,0.03,158.00,VWS V14.01,2013-12-26 21:48:00,
2013-12-26 16:51:00,78.0,71.3,30.02,ENE,78,3.0,3.0,80,0.00,,FEW,0.03,107.00,VWS V14.01,2013-12-26 21:51:00,
2013-12-26 16:52:00,78.0,71.3,30.02,ENE,76,1.0,3.0,80,0.00,,FEW,0.03,102.00,VWS V14.01,2013-12-26 21:52:00,
2013-12-26 16:53:00,78.0,71.3,30.02,ENE,75,2.0,3.0,80,0.00,,FEW,0.03,105.00,VWS V14.01,2013-12-26 21:53:00,
2013-12-26 16:56:00,78.0,71.3,30.02,ENE,61,1.0,8.0,80,0.00,,FEW,0.03,97.00,VWS V14.01,2013-12-26 21:56:00,
2013-12-26 16:57:00,78.0,71.3,30.02,ENE,61,0.0,8.0,80,0.00,,FEW,0.03,98.00,VWS V14.01,2013-12-26 21:57:00,
2013-12-26 16:58:00,78.0,71.3,30.02,ENE,74,3.0,8.0,80,0.00,,FEW,0.03,102.00,VWS V14.01,2013-12-26 21:58:00,
2013-12-26 17:01:00,77.9,71.2,30.03,East,90,1.0,2.0,80,0.00,,FEW,0.03,90.00,VWS V14.01,2013-12-26 22:01:00,
2013-12-26 17:02:00,77.9,71.2,30.03,East,90,1.0,2.0,80,0.00,,FEW,0.03,90.00,VWS V14.01,2013-12-26 22:02:00,
2013-12-26 17:03:00,77.9,71.2,30.03,ENE,74,1.0,3.0,80,0.00,,FEW,0.03,84.00,VWS V14.01,2013-12-26 22:03:00,
2013-12-26 17:06:00,77.8,71.1,30.03,ESE,107,3.0,8.0,80,0.00,,FEW,0.03,62.00,VWS V14.01,2013-12-26 22:06:00,
2013-12-26 17:07:00,77.8,71.1,30.03,East,79,5.0,8.0,80,0.00,,FEW,0.03,62.00,VWS V14.01,2013-12-26 22:07:00,
2013-12-26 17:08:00,77.8,70.8,30.03,ENE,57,4.0,8.0,79,0.00,,FEW,0.03,49.00,VWS V14.01,2013-12-26 22:08:00,
2013-12-26 17:12:00,77.7,70.7,30.03,East,85,3.0,5.0,79,0.00,,FEW,0.03,67.00,VWS V14.01,2013-12-26 22:12:00,
2013-12-26 17:13:00,77.7,70.7,30.03,ESE,119,3.0,5.0,79,0.00,,FEW,0.03,54.00,VWS V14.01,2013-12-26 22:13:00,
2013-12-26 17:17:00,77.6,70.6,30.03,NE,44,3.0,6.0,79,0.00,,FEW,0.03,56.00,VWS V14.01,2013-12-26 22:17:00,
2013-12-26 17:18:00,77.6,70.6,30.03,ENE,72,1.0,6.0,79,0.00,,FEW,0.03,54.00,VWS V14.01,2013-12-26 22:18:00,
2013-12-26 17:22:00,77.5,70.5,30.03,East,80,1.0,3.0,79,0.00,,FEW,0.03,39.00,VWS V14.01,2013-12-26 22:22:00,
2013-12-26 17:23:00,77.5,70.5,30.03,East,80,1.0,3.0,79,0.00,,FEW,0.03,40.00,VWS V14.01,2013-12-26 22:23:00,
2013-12-26 17:24:00,77.5,70.5,30.03,ENE,68,1.0,3.0,79,0.00,,FEW,0.03,39.00,VWS V14.01,2013-12-26 22:24:00,
2013-12-26 17:27:00,77.4,70.4,30.03,NE,41,0.0,5.0,79,0.00,,FEW,0.03,26.00,VWS V14.01,2013-12-26 22:27:00,
2013-12-26 17:28:00,77.4,70.4,30.03,East,85,3.0,5.0,79,0.00,,FEW,0.03,26.00,VWS V14.01,2013-12-26 22:28:00,
2013-12-26 17:29:00,77.4,70.4,30.03,ENE,63,1.0,5.0,79,0.00,,FEW,0.03,25.00,VWS V14.01,2013-12-26 22:29:00,
2013-12-26 17:32:00,77.3,70.7,30.03,East,83,1.0,2.0,80,0.00,,FEW,0.03,21.00,VWS V14.01,2013-12-26 22:32:00,
2013-12-26 17:33:00,77.3,70.7,30.03,ENE,75,0.0,2.0,80,0.00,,FEW,0.03,21.00,VWS V14.01,2013-12-26 22:33:00,
2013-12-26 17:34:00,77.3,70.7,30.03,ENE,75,0.0,2.0,80,0.00,,FEW,0.03,19.00,VWS V14.01,2013-12-26 22:34:00,
2013-12-26 17:35:00,77.3,70.7,30.03,ENE,69,0.0,3.0,80,0.00,,FEW,0.03,18.00,VWS V14.01,2013-12-26 22:35:00,
2013-12-26 17:37:00,77.2,70.6,30.03,NE,42,0.0,3.0,80,0.00,,FEW,0.03,14.00,VWS V14.01,2013-12-26 22:37:00,
2013-12-26 17:38:00,77.2,70.6,30.03,NE,42,1.0,3.0,80,0.00,,FEW,0.03,11.00,VWS V14.01,2013-12-26 22:38:00,
2013-12-26 17:39:00,77.2,70.6,30.03,ENE,59,0.0,3.0,80,0.00,,FEW,0.03,9.00,VWS V14.01,2013-12-26 22:39:00,
2013-12-26 17:40:00,77.2,70.6,30.03,ENE,59,0.0,3.0,80,0.00,,FEW,0.03,7.00,VWS V14.01,2013-12-26 22:40:00,
2013-12-26 17:42:00,77.1,70.5,30.03,ENE,69,1.0,5.0,80,0.00,,FEW,0.03,5.00,VWS V14.01,2013-12-26 22:42:00,
2013-12-26 17:43:00,77.1,70.5,30.03,East,81,1.0,5.0,80,0.00,,FEW,0.03,5.00,VWS V14.01,2013-12-26 22:43:00,
2013-12-26 17:44:00,77.0,70.4,30.03,ENE,78,1.0,5.0,80,0.00,,FEW,0.03,5.00,VWS V14.01,2013-12-26 22:44:00,
2013-12-26 17:45:00,76.9,70.3,30.03,ENE,63,0.0,5.0,80,0.00,,FEW,0.03,0.00,VWS V14.01,2013-12-26 22:45:00,
2013-12-26 17:48:00,76.8,70.5,30.03,ENE,57,2.0,5.0,81,0.00,,FEW,0.03,0.00,VWS V14.01,2013-12-26 22:48:00,
2013-12-26 17:49:00,76.8,70.5,30.03,ENE,57,0.0,5.0,81,0.00,,FEW,0.03,0.00,VWS V14.01,2013-12-26 22:49:00,
2013-12-26 17:51:00,76.7,70.4,30.03,NE,40,0.0,5.0,81,0.00,,FEW,0.03,0.00,VWS V14.01,2013-12-26 22:51:00,
2013-12-26 17:53:00,76.6,70.3,30.03,NE,54,4.0,5.0,81,0.00,,FEW,0.03,0.00,VWS V14.01,2013-12-26 22:53:00,
2013-12-26 17:54:00,76.5,70.2,30.03,ENE,63,2.0,5.0,81,0.00,,FEW,0.03,0.00,VWS V14.01,2013-12-26 22:54:00,
2013-12-26 17:55:00,76.5,70.2,30.03,ENE,59,2.0,5.0,81,0.00,,FEW,0.03,0.00,VWS V14.01,2013-12-26 22:55:00,
2013-12-26 17:57:00,76.4,70.1,30.03,NE,53,0.0,5.0,81,0.00,,FEW,0.03,0.00,VWS V14.01,2013-12-26 22:57:00,
2013-12-26 17:58:00,76.4,70.1,30.03,ENE,68,4.0,5.0,81,0.00,,FEW,0.03,0.00,VWS V14.01,2013-12-26 22:58:00,
2013-12-26 17:59:00,76.4,70.1,30.03,ENE,68,1.0,5.0,81,0.00,,FEW,0.03,0.00,VWS V14.01,2013-12-26 22:59:00,
2013-12-26 18:00:00,76.3,70.1,30.03,ENE,64,1.0,5.0,81,0.00,,FEW,0.03,0.00,VWS V14.01,2013-12-26 23:00:00,
2013-12-26 18:02:00,76.2,70.3,30.04,ENE,64,1.0,2.0,82,0.00,,FEW,0.03,0.00,VWS V14.01,2013-12-26 23:02:00,
2013-12-26 18:03:00,76.2,70.3,30.04,NE,54,1.0,3.0,82,0.00,,FEW,0.03,0.00,VWS V14.01,2013-12-26 23:03:00,
2013-12-26 18:04:00,76.2,70.3,30.04,NE,54,1.0,3.0,82,0.00,,FEW,0.03,0.00,VWS V14.01,2013-12-26 23:04:00,
2013-12-26 18:05:00,76.2,70.3,30.04,ENE,59,1.0,3.0,82,0.00,,FEW,0.03,0.00,VWS V14.01,2013-12-26 23:05:00,
2013-12-26 18:07:00,76.1,70.2,30.04,ENE,59,0.0,3.0,82,0.00,,FEW,0.03,0.00,VWS V14.01,2013-12-26 23:07:00,
2013-12-26 18:08:00,76.1,70.2,30.04,ENE,59,0.0,3.0,82,0.00,,FEW,0.03,0.00,VWS V14.01,2013-12-26 23:08:00,
2013-12-26 18:09:00,76.1,70.2,30.04,ENE,59,0.0,3.0,82,0.00,,FEW,0.03,0.00,VWS V14.01,2013-12-26 23:09:00,
2013-12-26 18:10:00,76.1,70.2,30.04,ENE,59,0.0,3.0,82,0.00,,FEW,0.03,0.00,VWS V14.01,2013-12-26 23:10:00,
2013-12-26 18:12:00,76.1,70.2,30.04,ENE,59,1.0,1.0,82,0.00,,FEW,0.03,0.00,VWS V14.01,2013-12-26 23:12:00,
2013-12-26 18:13:00,76.0,70.1,30.04,ENE,61,1.0,2.0,82,0.00,,FEW,0.03,0.00,VWS V14.01,2013-12-26 23:13:00,
2013-12-26 18:14:00,76.0,70.5,30.04,NE,52,2.0,4.0,83,0.00,,FEW,0.03,0.00,VWS V14.01,2013-12-26 23:14:00,
2013-12-26 18:15:00,76.0,70.5,30.04,ENE,62,1.0,4.0,83,0.00,,FEW,0.03,0.00,VWS V14.01,2013-12-26 23:15:00,
2013-12-26 18:18:00,75.9,70.4,30.04,East,83,2.0,4.0,83,0.00,,FEW,0.03,0.00,VWS V14.01,2013-12-26 23:18:00,
2013-12-26 18:19:00,75.9,70.4,30.04,ENE,76,1.0,4.0,83,0.00,,FEW,0.03,0.00,VWS V14.01,2013-12-26 23:19:00,
2013-12-26 18:20:00,75.9,70.4,30.04,ENE,76,2.0,4.0,83,0.00,,FEW,0.03,0.00,VWS V14.01,2013-12-26 23:20:00,
2013-12-26 18:23:00,75.8,70.6,30.04,NE,50,3.0,3.0,84,0.00,,FEW,0.03,0.00,VWS V14.01,2013-12-26 23:23:00,
2013-12-26 18:25:00,75.8,70.6,30.04,NNE,32,3.0,4.0,84,0.00,,FEW,0.03,0.00,VWS V14.01,2013-12-26 23:25:00,
2013-12-26 18:28:00,75.7,70.5,30.04,ENE,63,0.0,4.0,84,0.00,,FEW,0.03,0.00,VWS V14.01,2013-12-26 23:28:00,
2013-12-26 18:29:00,75.7,70.5,30.04,ENE,63,0.0,4.0,84,0.00,,FEW,0.03,0.00,VWS V14.01,2013-12-26 23:29:00,
2013-12-26 18:30:00,75.7,70.5,30.04,ENE,75,0.0,4.0,84,0.00,,FEW,0.03,0.00,VWS V14.01,2013-12-26 23:30:00,
2013-12-26 18:31:00,75.7,70.5,30.04,ENE,70,1.0,4.0,84,0.00,,FEW,0.03,0.00,VWS V14.01,2013-12-26 23:31:00,
2013-12-26 18:34:00,75.6,70.4,30.04,ENE,58,0.0,5.0,84,0.00,,FEW,0.03,0.00,VWS V14.01,2013-12-26 23:34:00,
2013-12-26 18:35:00,75.6,70.4,30.04,NE,36,5.0,5.0,84,0.00,,FEW,0.03,0.00,VWS V14.01,2013-12-26 23:35:00,
2013-12-26 18:36:00,75.6,70.8,30.04,NE,55,0.0,5.0,85,0.00,,FEW,0.03,0.00,VWS V14.01,2013-12-26 23:36:00,
2013-12-26 18:39:00,75.5,70.7,30.04,ENE,73,0.0,5.0,85,0.00,,FEW,0.03,0.00,VWS V14.01,2013-12-26 23:39:00,
2013-12-26 18:40:00,75.5,70.7,30.04,NE,55,0.0,5.0,85,0.00,,FEW,0.03,0.00,VWS V14.01,2013-12-26 23:40:00,
2013-12-26 18:41:00,75.4,70.6,30.04,ENE,60,2.0,5.0,85,0.00,,FEW,0.03,0.00,VWS V14.01,2013-12-26 23:41:00,
2013-12-26 18:42:00,75.4,70.6,30.04,ENE,68,2.0,2.0,85,0.00,,FEW,0.03,0.00,VWS V14.01,2013-12-26 23:42:00,
2013-12-26 18:44:00,75.4,70.6,30.04,ENE,64,1.0,2.0,85,0.00,,FEW,0.03,0.00,VWS V14.01,2013-12-26 23:44:00,
2013-12-26 18:45:00,75.4,70.6,30.04,NNE,29,2.0,3.0,85,0.00,,FEW,0.03,0.00,VWS V14.01,2013-12-26 23:45:00,
2013-12-26 18:46:00,75.3,70.5,30.04,NNE,31,1.0,3.0,85,0.00,,FEW,0.03,0.00,VWS V14.01,2013-12-26 23:46:00,
2013-12-26 18:47:00,75.3,70.5,30.04,NE,38,1.0,4.0,85,0.00,,FEW,0.03,0.00,VWS V14.01,2013-12-26 23:47:00,
2013-12-26 18:49:00,75.3,70.5,30.04,NNE,33,1.0,4.0,85,0.00,,FEW,0.03,0.00,VWS V14.01,2013-12-26 23:49:00,
2013-12-26 18:50:00,75.3,70.5,30.04,NE,51,1.0,4.0,85,0.00,,FEW,0.03,0.00,VWS V14.01,2013-12-26 23:50:00,
2013-12-26 18:51:00,75.2,70.4,30.04,ENE,68,2.0,2.0,85,0.00,,FEW,0.03,0.00,VWS V14.01,2013-12-26 23:51:00,
2013-12-26 18:54:00,75.2,70.4,30.04,ENE,63,3.0,3.0,85,0.00,,FEW,0.03,0.00,VWS V14.01,2013-12-26 23:54:00,
2013-12-26 18:55:00,75.2,70.4,30.04,NE,40,1.0,3.0,85,0.00,,FEW,0.03,0.00,VWS V14.01,2013-12-26 23:55:00,
2013-12-26 18:56:00,75.2,70.4,30.04,NE,40,0.0,3.0,85,0.00,,FEW,0.03,0.00,VWS V14.01,2013-12-26 23:56:00,
2013-12-26 18:59:00,75.2,70.4,30.04,NNE,17,3.0,3.0,85,0.00,,FEW,0.03,0.00,VWS V14.01,2013-12-26 23:59:00,
2013-12-26 19:01:00,75.2,70.4,30.05,NE,51,2.0,4.0,85,0.00,,FEW,0.03,0.00,VWS V14.01,2013-12-27 00:01:00,
2013-12-26 19:02:00,75.1,70.3,30.05,NE,52,0.0,2.0,85,0.00,,FEW,0.03,0.00,VWS V14.01,2013-12-27 00:02:00,
2013-12-26 19:04:00,75.1,70.3,30.05,ENE,63,1.0,3.0,85,0.00,,FEW,0.03,0.00,VWS V14.01,2013-12-27 00:04:00,
2013-12-26 19:06:00,75.1,70.6,30.05,NE,47,0.0,5.0,86,0.00,,FEW,0.03,0.00,VWS V14.01,2013-12-27 00:06:00,
2013-12-26 19:07:00,75.1,70.6,30.05,NE,51,1.0,5.0,86,0.00,,FEW,0.03,0.00,VWS V14.01,2013-12-27 00:07:00,
2013-12-26 19:09:00,75.1,70.6,30.05,ENE,64,2.0,5.0,86,0.00,,FEW,0.03,0.00,VWS V14.01,2013-12-27 00:09:00,
2013-12-26 19:10:00,75.1,70.6,30.05,ENE,60,3.0,5.0,86,0.00,,FEW,0.03,0.00,VWS V14.01,2013-12-27 00:10:00,
2013-12-26 19:11:00,75.1,70.6,30.05,ENE,69,1.0,5.0,86,0.00,,FEW,0.03,0.00,VWS V14.01,2013-12-27 00:11:00,
2013-12-26 19:12:00,75.1,70.6,30.05,ENE,69,1.0,1.0,86,0.00,,FEW,0.03,0.00,VWS V14.01,2013-12-27 00:12:00,
2013-12-26 19:13:00,75.0,70.5,30.05,East,83,5.0,5.0,86,0.00,,FEW,0.03,0.00,VWS V14.01,2013-12-27 00:13:00,
2013-12-26 19:14:00,75.1,70.6,30.05,East,83,0.0,5.0,86,0.00,,FEW,0.03,0.00,VWS V14.01,2013-12-27 00:14:00,
2013-12-26 19:15:00,75.0,70.5,30.05,East,83,0.0,5.0,86,0.00,,FEW,0.03,0.00,VWS V14.01,2013-12-27 00:15:00,
2013-12-26 19:16:00,75.0,70.5,30.05,ENE,69,1.0,5.0,86,0.00,,FEW,0.03,0.00,VWS V14.01,2013-12-27 00:16:00,
2013-12-26 19:17:00,75.0,70.5,30.05,NE,49,1.0,5.0,86,0.00,,FEW,0.03,0.00,VWS V14.01,2013-12-27 00:17:00,
2013-12-26 19:18:00,75.0,70.5,30.05,NE,55,4.0,5.0,86,0.00,,FEW,0.03,0.00,VWS V14.01,2013-12-27 00:18:00,
2013-12-26 19:20:00,75.0,70.5,30.05,ENE,63,1.0,5.0,86,0.00,,FEW,0.03,0.00,VWS V14.01,2013-12-27 00:20:00,
2013-12-26 19:21:00,75.0,70.5,30.05,ENE,63,0.0,5.0,86,0.00,,FEW,0.03,0.00,VWS V14.01,2013-12-27 00:21:00,
2013-12-26 19:22:00,75.0,70.5,30.05,ENE,63,0.0,0.0,86,0.00,,FEW,0.03,0.00,VWS V14.01,2013-12-27 00:22:00,
2013-12-26 19:23:00,75.0,70.5,30.05,ENE,68,2.0,3.0,86,0.00,,FEW,0.03,0.00,VWS V14.01,2013-12-27 00:23:00,
2013-12-26 19:25:00,74.9,70.4,30.05,ENE,67,1.0,3.0,86,0.00,,FEW,0.03,0.00,VWS V14.01,2013-12-27 00:25:00,
2013-12-26 19:26:00,74.9,70.4,30.05,ENE,65,1.0,3.0,86,0.00,,FEW,0.03,0.00,VWS V14.01,2013-12-27 00:26:00,
2013-12-26 19:27:00,74.9,70.4,30.05,ENE,65,0.0,3.0,86,0.00,,FEW,0.03,0.00,VWS V14.01,2013-12-27 00:27:00,
2013-12-26 19:28:00,74.9,70.4,30.05,NE,49,4.0,4.0,86,0.00,,FEW,0.03,0.00,VWS V14.01,2013-12-27 00:28:00,
2013-12-26 19:30:00,74.9,70.4,30.05,ENE,67,0.0,4.0,86,0.00,,FEW,0.03,0.00,VWS V14.01,2013-12-27 00:30:00,
2013-12-26 19:31:00,74.9,70.4,30.06,ENE,67,1.0,4.0,86,0.00,,FEW,0.03,0.00,VWS V14.01,2013-12-27 00:31:00,
2013-12-26 19:32:00,74.9,70.4,30.06,NE,56,0.0,3.0,86,0.00,,FEW,0.03,0.00,VWS V14.01,2013-12-27 00:32:00,
2013-12-26 19:33:00,74.8,70.3,30.06,ENE,57,2.0,3.0,86,0.00,,FEW,0.03,0.00,VWS V14.01,2013-12-27 00:33:00,
2013-12-26 19:35:00,74.8,70.3,30.06,ENE,67,1.0,3.0,86,0.00,,FEW,0.03,0.00,VWS V14.01,2013-12-27 00:35:00,
2013-12-26 19:36:00,74.8,70.3,30.06,ENE,68,0.0,3.0,86,0.00,,FEW,0.03,0.00,VWS V14.01,2013-12-27 00:36:00,
2013-12-26 19:37:00,74.8,70.3,30.06,ENE,71,2.0,3.0,86,0.00,,FEW,0.03,0.00,VWS V14.01,2013-12-27 00:37:00,
2013-12-26 19:38:00,74.8,70.3,30.06,NE,39,0.0,3.0,86,0.00,,FEW,0.03,0.00,VWS V14.01,2013-12-27 00:38:00,
2013-12-26 19:40:00,74.8,70.3,30.06,NE,51,1.0,3.0,86,0.00,,FEW,0.03,0.00,VWS V14.01,2013-12-27 00:40:00,
2013-12-26 19:41:00,74.8,70.3,30.06,NE,51,0.0,3.0,86,0.00,,FEW,0.03,0.00,VWS V14.01,2013-12-27 00:41:00,
2013-12-26 19:42:00,74.7,70.2,30.06,NNE,29,1.0,3.0,86,0.00,,FEW,0.03,0.00,VWS V14.01,2013-12-27 00:42:00,
2013-12-26 19:43:00,74.7,70.2,30.06,NNE,29,1.0,3.0,86,0.00,,FEW,0.03,0.00,VWS V14.01,2013-12-27 00:43:00,
2013-12-26 19:45:00,74.7,70.2,30.06,NNE,32,0.0,3.0,86,0.00,,FEW,0.03,0.00,VWS V14.01,2013-12-27 00:45:00,
2013-12-26 19:46:00,74.6,70.1,30.06,NE,41,0.0,3.0,86,0.00,,FEW,0.03,0.00,VWS V14.01,2013-12-27 00:46:00,
2013-12-26 19:47:00,74.6,70.1,30.06,NE,41,1.0,3.0,86,0.00,,FEW,0.03,0.00,VWS V14.01,2013-12-27 00:47:00,
2013-12-26 19:48:00,74.6,70.1,30.06,NE,42,1.0,3.0,86,0.00,,FEW,0.03,0.00,VWS V14.01,2013-12-27 00:48:00,
2013-12-26 19:50:00,74.6,70.1,30.06,NNE,28,2.0,3.0,86,0.00,,FEW,0.03,0.00,VWS V14.01,2013-12-27 00:50:00,
2013-12-26 19:52:00,74.6,70.1,30.06,NE,39,4.0,4.0,86,0.00,,FEW,0.03,0.00,VWS V14.01,2013-12-27 00:52:00,
2013-12-26 19:53:00,74.5,70.0,30.06,NE,39,1.0,4.0,86,0.00,,FEW,0.03,0.00,VWS V14.01,2013-12-27 00:53:00,
2013-12-26 19:55:00,74.5,70.0,30.06,NE,44,2.0,4.0,86,0.00,,FEW,0.03,0.00,VWS V14.01,2013-12-27 00:55:00,
2013-12-26 19:57:00,74.5,70.0,30.06,ENE,59,2.0,4.0,86,0.00,,FEW,0.03,0.00,VWS V14.01,2013-12-27 00:57:00,
2013-12-26 19:58:00,74.5,70.0,30.06,NNE,28,1.0,4.0,86,0.00,,FEW,0.03,0.00,VWS V14.01,2013-12-27 00:58:00,
2013-12-26 19:59:00,74.5,70.0,30.06,NE,55,3.0,4.0,86,0.00,,FEW,0.03,0.00,VWS V14.01,2013-12-27 00:59:00,
2013-12-26 20:00:00,74.5,70.0,30.07,NE,52,2.0,4.0,86,0.00,,FEW,0.03,0.00,VWS V14.01,2013-12-27 01:00:00,
2013-12-26 20:02:00,74.5,70.0,30.07,ENE,64,1.0,2.0,86,0.00,,FEW,0.03,0.00,VWS V14.01,2013-12-27 01:02:00,
2013-12-26 20:03:00,74.5,70.0,30.07,ENE,64,2.0,2.0,86,0.00,,FEW,0.03,0.00,VWS V14.01,2013-12-27 01:03:00,
2013-12-26 20:04:00,74.6,70.1,30.07,ENE,73,0.0,5.0,86,0.00,,FEW,0.03,0.00,VWS V14.01,2013-12-27 01:04:00,
2013-12-26 20:06:00,74.6,70.1,30.07,ENE,76,2.0,5.0,86,0.00,,FEW,0.03,0.00,VWS V14.01,2013-12-27 01:06:00,
2013-12-26 20:07:00,74.6,70.1,30.07,NE,44,0.0,5.0,86,0.00,,FEW,0.03,0.00,VWS V14.01,2013-12-27 01:07:00,
2013-12-26 20:08:00,74.6,70.1,30.07,NE,35,1.0,5.0,86,0.00,,FEW,0.03,0.00,VWS V14.01,2013-12-27 01:08:00,
2013-12-26 20:09:00,74.6,70.1,30.07,NE,51,0.0,5.0,86,0.00,,FEW,0.03,0.00,VWS V14.01,2013-12-27 01:09:00,
2013-12-26 20:11:00,74.6,70.1,30.07,ENE,63,1.0,5.0,86,0.00,,FEW,0.03,0.00,VWS V14.01,2013-12-27 01:11:00,
2013-12-26 20:12:00,74.6,70.1,30.07,ENE,63,1.0,2.0,86,0.00,,FEW,0.03,0.00,VWS V14.01,2013-12-27 01:12:00,
2013-12-26 20:13:00,74.5,70.0,30.07,ENE,63,2.0,3.0,86,0.00,,FEW,0.03,0.00,VWS V14.01,2013-12-27 01:13:00,
2013-12-26 20:14:00,74.5,70.0,30.07,NNE,22,0.0,3.0,86,0.00,,FEW,0.03,0.00,VWS V14.01,2013-12-27 01:14:00,
2013-12-26 20:16:00,74.5,70.0,30.07,NNE,24,1.0,3.0,86,0.00,,FEW,0.03,0.00,VWS V14.01,2013-12-27 01:16:00,
2013-12-26 20:17:00,74.5,70.0,30.07,NE,34,1.0,3.0,86,0.00,,FEW,0.03,0.00,VWS V14.01,2013-12-27 01:17:00,
2013-12-26 20:18:00,74.5,70.0,30.07,NE,56,3.0,3.0,86,0.00,,FEW,0.03,0.00,VWS V14.01,2013-12-27 01:18:00,
2013-12-26 20:19:00,74.5,70.0,30.07,ENE,76,3.0,7.0,86,0.00,,FEW,0.03,0.00,VWS V14.01,2013-12-27 01:19:00,
2013-12-26 20:20:00,74.4,69.9,30.07,ENE,65,1.0,7.0,86,0.00,,FEW,0.03,0.00,VWS V14.01,2013-12-27 01:20:00,
2013-12-26 20:21:00,74.5,70.0,30.07,ENE,67,2.0,7.0,86,0.00,,FEW,0.03,0.00,VWS V14.01,2013-12-27 01:21:00,
2013-12-26 20:22:00,74.5,70.0,30.07,ENE,67,0.0,2.0,86,0.00,,FEW,0.03,0.00,VWS V14.01,2013-12-27 01:22:00,
2013-12-26 20:23:00,74.5,70.0,30.07,ENE,67,0.0,2.0,86,0.00,,FEW,0.03,0.00,VWS V14.01,2013-12-27 01:23:00,
2013-12-26 20:25:00,74.5,70.0,30.07,ENE,74,2.0,2.0,86,0.00,,FEW,0.03,0.00,VWS V14.01,2013-12-27 01:25:00,
2013-12-26 20:26:00,74.5,70.0,30.07,ENE,66,1.0,3.0,86,0.00,,FEW,0.03,0.00,VWS V14.01,2013-12-27 01:26:00,
2013-12-26 20:27:00,74.5,70.0,30.07,ENE,61,1.0,3.0,86,0.00,,FEW,0.03,0.00,VWS V14.01,2013-12-27 01:27:00,
2013-12-26 20:28:00,74.5,70.0,30.07,ENE,57,0.0,3.0,86,0.00,,FEW,0.03,0.00,VWS V14.01,2013-12-27 01:28:00,
2013-12-26 20:29:00,74.5,70.0,30.07,ENE,57,0.0,3.0,86,0.00,,FEW,0.03,0.00,VWS V14.01,2013-12-27 01:29:00,
2013-12-26 20:30:00,74.5,70.0,30.07,NE,51,1.0,3.0,86,0.00,,FEW,0.03,0.00,VWS V14.01,2013-12-27 01:30:00,
2013-12-26 20:31:00,74.5,70.0,30.07,NE,51,1.0,3.0,86,0.00,,FEW,0.03,0.00,VWS V14.01,2013-12-27 01:31:00,
2013-12-26 20:33:00,74.5,70.0,30.07,NE,51,0.0,4.0,86,0.00,,FEW,0.03,0.00,VWS V14.01,2013-12-27 01:33:00,
2013-12-26 20:34:00,74.5,70.0,30.07,ENE,63,1.0,4.0,86,0.00,,FEW,0.03,0.00,VWS V14.01,2013-12-27 01:34:00,
2013-12-26 20:35:00,74.5,70.0,30.07,ENE,66,0.0,4.0,86,0.00,,FEW,0.03,0.00,VWS V14.01,2013-12-27 01:35:00,
2013-12-26 20:36:00,74.5,70.0,30.07,ENE,66,0.0,4.0,86,0.00,,FEW,0.03,0.00,VWS V14.01,2013-12-27 01:36:00,
2013-12-26 20:38:00,74.4,69.9,30.07,NE,45,1.0,4.0,86,0.00,,FEW,0.03,0.00,VWS V14.01,2013-12-27 01:38:00,
2013-12-26 20:39:00,74.4,69.9,30.07,NE,45,0.0,4.0,86,0.00,,FEW,0.03,0.00,VWS V14.01,2013-12-27 01:39:00,
2013-12-26 20:41:00,74.4,69.9,30.07,NE,45,1.0,4.0,86,0.00,,FEW,0.03,0.00,VWS V14.01,2013-12-27 01:41:00,
2013-12-26 20:43:00,74.4,69.9,30.07,NE,44,1.0,4.0,86,0.00,,FEW,0.03,0.00,VWS V14.01,2013-12-27 01:43:00,
2013-12-26 20:44:00,74.4,69.9,30.07,NE,46,1.0,4.0,86,0.00,,FEW,0.03,0.00,VWS V14.01,2013-12-27 01:44:00,
2013-12-26 20:46:00,74.4,69.9,30.07,NE,49,1.0,4.0,86,0.00,,FEW,0.03,0.00,VWS V14.01,2013-12-27 01:46:00,
2013-12-26 20:47:00,74.4,69.9,30.07,NE,53,2.0,4.0,86,0.00,,FEW,0.03,0.00,VWS V14.01,2013-12-27 01:47:00,
2013-12-26 20:48:00,74.4,69.9,30.07,NE,40,0.0,4.0,86,0.00,,FEW,0.03,0.00,VWS V14.01,2013-12-27 01:48:00,
2013-12-26 20:49:00,74.4,69.9,30.07,NE,46,1.0,5.0,86,0.00,,FEW,0.03,0.00,VWS V14.01,2013-12-27 01:49:00,
2013-12-26 20:51:00,74.4,69.9,30.07,ENE,69,2.0,5.0,86,0.00,,FEW,0.03,0.00,VWS V14.01,2013-12-27 01:51:00,
2013-12-26 20:52:00,74.4,69.9,30.07,ENE,69,1.0,3.0,86,0.00,,FEW,0.03,0.00,VWS V14.01,2013-12-27 01:52:00,
2013-12-26 20:53:00,74.4,69.9,30.07,ENE,74,2.0,3.0,86,0.00,,FEW,0.03,0.00,VWS V14.01,2013-12-27 01:53:00,
2013-12-26 20:54:00,74.4,69.9,30.07,NNE,27,4.0,4.0,86,0.00,,FEW,0.03,0.00,VWS V14.01,2013-12-27 01:54:00,
2013-12-26 20:56:00,74.4,69.9,30.07,ENE,66,2.0,5.0,86,0.00,,FEW,0.03,0.00,VWS V14.01,2013-12-27 01:56:00,
2013-12-26 20:57:00,74.4,69.9,30.07,ENE,66,0.0,5.0,86,0.00,,FEW,0.03,0.00,VWS V14.01,2013-12-27 01:57:00,
2013-12-26 20:58:00,74.5,70.0,30.07,ENE,72,0.0,5.0,86,0.00,,FEW,0.03,0.00,VWS V14.01,2013-12-27 01:58:00,
2013-12-26 20:59:00,74.5,70.0,30.07,ENE,67,0.0,5.0,86,0.00,,FEW,0.03,0.00,VWS V14.01,2013-12-27 01:59:00,
2013-12-26 21:01:00,74.5,70.0,30.08,East,82,0.0,1.0,86,0.00,,FEW,0.03,0.00,VWS V14.01,2013-12-27 02:01:00,
2013-12-26 21:02:00,74.5,70.0,30.08,East,82,0.0,1.0,86,0.00,,FEW,0.03,0.00,VWS V14.01,2013-12-27 02:02:00,
2013-12-26 21:03:00,74.5,70.0,30.08,NE,55,0.0,4.0,86,0.00,,FEW,0.03,0.00,VWS V14.01,2013-12-27 02:03:00,
2013-12-26 21:04:00,74.5,70.0,30.08,NE,56,1.0,4.0,86,0.00,,FEW,0.03,0.00,VWS V14.01,2013-12-27 02:04:00,
2013-12-26 21:06:00,74.5,70.4,30.08,NNE,33,1.0,4.0,87,0.00,,FEW,0.03,0.00,VWS V14.01,2013-12-27 02:06:00,
2013-12-26 21:07:00,74.5,70.4,30.08,NE,41,2.0,4.0,87,0.00,,FEW,0.03,0.00,VWS V14.01,2013-12-27 02:07:00,
2013-12-26 21:09:00,74.5,70.4,30.08,ENE,63,1.0,4.0,87,0.00,,FEW,0.03,0.00,VWS V14.01,2013-12-27 02:09:00,
2013-12-26 21:12:00,74.5,70.4,30.08,ENE,65,0.0,1.0,87,0.00,,FEW,0.03,0.00,VWS V14.01,2013-12-27 02:12:00,
2013-12-26 21:14:00,74.6,70.5,30.08,ENE,73,1.0,2.0,87,0.00,,FEW,0.03,0.00,VWS V14.01,2013-12-27 02:14:00,
2013-12-26 21:15:00,74.6,70.5,30.08,ENE,73,0.0,2.0,87,0.00,,FEW,0.03,0.00,VWS V14.01,2013-12-27 02:15:00,
2013-12-26 21:17:00,74.5,70.4,30.08,ENE,69,3.0,3.0,87,0.00,,FEW,0.03,0.00,VWS V14.01,2013-12-27 02:17:00,
2013-12-26 21:18:00,74.6,70.5,30.08,ENE,69,2.0,3.0,87,0.00,,FEW,0.03,0.00,VWS V14.01,2013-12-27 02:18:00,
2013-12-26 21:19:00,74.5,70.4,30.08,NNE,15,5.0,5.0,87,0.00,,FEW,0.03,0.00,VWS V14.01,2013-12-27 02:19:00,
2013-12-26 21:20:00,74.5,70.4,30.08,NE,45,0.0,5.0,87,0.00,,FEW,0.03,0.00,VWS V14.01,2013-12-27 02:20:00,
2013-12-26 21:22:00,74.5,70.4,30.08,ENE,65,1.0,1.0,87,0.00,,FEW,0.03,0.00,VWS V14.01,2013-12-27 02:22:00,
2013-12-26 21:23:00,74.5,70.4,30.08,ENE,65,0.0,2.0,87,0.00,,FEW,0.03,0.00,VWS V14.01,2013-12-27 02:23:00,
2013-12-26 21:24:00,74.5,70.4,30.08,NE,51,1.0,3.0,87,0.00,,FEW,0.03,0.00,VWS V14.01,2013-12-27 02:24:00,
2013-12-26 21:25:00,74.5,70.4,30.08,NE,51,1.0,3.0,87,0.00,,FEW,0.03,0.00,VWS V14.01,2013-12-27 02:25:00,
2013-12-26 21:27:00,74.5,70.4,30.08,ENE,61,0.0,4.0,87,0.00,,FEW,0.03,0.00,VWS V14.01,2013-12-27 02:27:00,
2013-12-26 21:28:00,74.5,70.4,30.08,ENE,71,3.0,4.0,87,0.00,,FEW,0.03,0.00,VWS V14.01,2013-12-27 02:28:00,
2013-12-26 21:30:00,74.5,70.4,30.08,ENE,71,3.0,4.0,87,0.00,,FEW,0.03,0.00,VWS V14.01,2013-12-27 02:30:00,
2013-12-26 21:33:00,74.4,70.3,30.08,East,80,2.0,2.0,87,0.00,,FEW,0.03,0.00,VWS V14.01,2013-12-27 02:33:00,
2013-12-26 21:35:00,74.4,70.3,30.08,ESE,103,1.0,3.0,87,0.00,,FEW,0.03,0.00,VWS V14.01,2013-12-27 02:35:00,
2013-12-26 21:38:00,74.4,70.3,30.08,ENE,75,3.0,4.0,87,0.00,,FEW,0.03,0.00,VWS V14.01,2013-12-27 02:38:00,
2013-12-26 21:40:00,74.4,70.3,30.08,ENE,76,0.0,4.0,87,0.00,,FEW,0.03,0.00,VWS V14.01,2013-12-27 02:40:00,
2013-12-26 21:43:00,74.4,70.3,30.08,ENE,68,2.0,4.0,87,0.00,,FEW,0.03,0.00,VWS V14.01,2013-12-27 02:43:00,
2013-12-26 21:45:00,74.4,70.3,30.08,ENE,64,3.0,4.0,87,0.00,,FEW,0.03,0.00,VWS V14.01,2013-12-27 02:45:00,
2013-12-26 21:47:00,74.4,70.3,30.08,ENE,68,1.0,4.0,87,0.00,,FEW,0.03,0.00,VWS V14.01,2013-12-27 02:47:00,
2013-12-26 21:48:00,74.4,70.3,30.08,East,87,6.0,6.0,87,0.00,,FEW,0.03,0.00,VWS V14.01,2013-12-27 02:48:00,
2013-12-26 21:49:00,74.3,70.2,30.08,ENE,75,4.0,6.0,87,0.00,,FEW,0.03,0.00,VWS V14.01,2013-12-27 02:49:00,
2013-12-26 21:50:00,74.3,70.2,30.08,ENE,71,0.0,6.0,87,0.00,,FEW,0.03,0.00,VWS V14.01,2013-12-27 02:50:00,
2013-12-26 21:52:00,74.3,70.2,30.08,East,88,1.0,2.0,87,0.00,,FEW,0.03,0.00,VWS V14.01,2013-12-27 02:52:00,
2013-12-26 21:53:00,74.3,70.2,30.08,East,88,2.0,2.0,87,0.00,,FEW,0.03,0.00,VWS V14.01,2013-12-27 02:53:00,
2013-12-26 21:54:00,74.3,70.2,30.08,East,99,2.0,2.0,87,0.00,,FEW,0.03,0.00,VWS V14.01,2013-12-27 02:54:00,
2013-12-26 21:55:00,74.3,70.2,30.08,East,98,2.0,2.0,87,0.00,,FEW,0.03,0.00,VWS V14.01,2013-12-27 02:55:00,
2013-12-26 21:57:00,74.3,70.2,30.08,East,81,2.0,4.0,87,0.00,,FEW,0.03,0.00,VWS V14.01,2013-12-27 02:57:00,
2013-12-26 21:58:00,74.3,70.2,30.08,ENE,71,1.0,4.0,87,0.00,,FEW,0.03,0.00,VWS V14.01,2013-12-27 02:58:00,
2013-12-26 21:59:00,74.4,70.3,30.08,NE,44,0.0,4.0,87,0.00,,FEW,0.03,0.00,VWS V14.01,2013-12-27 02:59:00,
2013-12-26 22:00:00,74.4,70.3,30.08,ENE,63,0.0,4.0,87,0.00,,FEW,0.03,0.00,VWS V14.01,2013-12-27 03:00:00,
2013-12-26 22:02:00,74.4,70.3,30.08,ENE,72,0.0,2.0,87,0.00,,FEW,0.03,0.00,VWS V14.01,2013-12-27 03:02:00,
2013-12-26 22:04:00,74.4,70.3,30.08,ENE,72,0.0,2.0,87,0.00,,FEW,0.03,0.00,VWS V14.01,2013-12-27 03:04:00,
2013-12-26 22:05:00,74.4,70.3,30.08,ENE,63,2.0,2.0,87,0.00,,FEW,0.03,0.00,VWS V14.01,2013-12-27 03:05:00,
2013-12-26 22:08:00,74.4,70.3,30.08,ESE,111,1.0,2.0,87,0.00,,FEW,0.03,0.00,VWS V14.01,2013-12-27 03:08:00,
2013-12-26 22:09:00,74.4,70.3,30.08,ESE,111,1.0,2.0,87,0.00,,FEW,0.03,0.00,VWS V14.01,2013-12-27 03:09:00,
2013-12-26 22:10:00,74.4,70.3,30.08,ENE,71,0.0,3.0,87,0.00,,FEW,0.03,0.00,VWS V14.01,2013-12-27 03:10:00,
2013-12-26 22:14:00,74.4,70.3,30.08,NE,52,0.0,3.0,87,0.00,,FEW,0.03,0.00,VWS V14.01,2013-12-27 03:14:00,
2013-12-26 22:15:00,74.3,70.2,30.08,NE,52,0.0,3.0,87,0.00,,FEW,0.03,0.00,VWS V14.01,2013-12-27 03:15:00,
2013-12-26 22:16:00,74.3,70.2,30.10,NE,51,2.0,3.0,87,0.00,,FEW,0.03,0.00,VWS V14.01,2013-12-27 03:16:00,
2013-12-26 22:19:00,74.3,70.2,30.10,NE,44,1.0,4.0,87,0.00,,FEW,0.03,0.00,VWS V14.01,2013-12-27 03:19:00,
2013-12-26 22:21:00,74.3,70.2,30.10,NE,46,0.0,4.0,87,0.00,,FEW,0.03,0.00,VWS V14.01,2013-12-27 03:21:00,
2013-12-26 22:24:00,74.2,70.1,30.10,NE,49,0.0,4.0,87,0.00,,FEW,0.03,0.00,VWS V14.01,2013-12-27 03:24:00,
2013-12-26 22:26:00,74.2,70.1,30.10,NE,49,0.0,4.0,87,0.00,,FEW,0.03,0.00,VWS V14.01,2013-12-27 03:26:00,
2013-12-26 22:29:00,74.2,70.1,30.10,ENE,57,1.0,4.0,87,0.00,,FEW,0.03,0.00,VWS V14.01,2013-12-27 03:29:00,
2013-12-26 22:30:00,74.2,70.1,30.10,NE,45,0.0,4.0,87,0.00,,FEW,0.03,0.00,VWS V14.01,2013-12-27 03:30:00,
2013-12-26 22:31:00,74.2,70.1,30.09,ENE,70,0.0,4.0,87,0.00,,FEW,0.03,0.00,VWS V14.01,2013-12-27 03:31:00,
2013-12-26 22:34:00,74.2,70.1,30.09,ENE,69,1.0,2.0,87,0.00,,FEW,0.03,0.00,VWS V14.01,2013-12-27 03:34:00,
2013-12-26 22:35:00,74.2,70.1,30.09,ENE,69,1.0,2.0,87,0.00,,FEW,0.03,0.00,VWS V14.01,2013-12-27 03:35:00,
2013-12-26 22:36:00,74.2,70.1,30.09,ENE,67,2.0,3.0,87,0.00,,FEW,0.03,0.00,VWS V14.01,2013-12-27 03:36:00,
2013-12-26 22:39:00,74.2,70.1,30.09,ENE,67,2.0,3.0,87,0.00,,FEW,0.03,0.00,VWS V14.01,2013-12-27 03:39:00,
2013-12-26 22:40:00,74.2,70.1,30.09,ENE,67,2.0,3.0,87,0.00,,FEW,0.03,0.00,VWS V14.01,2013-12-27 03:40:00,
2013-12-26 22:41:00,74.3,70.2,30.09,East,99,2.0,3.0,87,0.00,,FEW,0.03,0.00,VWS V14.01,2013-12-27 03:41:00,
2013-12-26 22:42:00,74.3,70.2,30.09,ENE,63,2.0,3.0,87,0.00,,FEW,0.03,0.00,VWS V14.01,2013-12-27 03:42:00,
2013-12-26 22:44:00,74.2,70.1,30.09,ENE,69,1.0,4.0,87,0.00,,FEW,0.03,0.00,VWS V14.01,2013-12-27 03:44:00,
2013-12-26 22:45:00,74.3,70.2,30.09,ENE,69,1.0,4.0,87,0.00,,FEW,0.03,0.00,VWS V14.01,2013-12-27 03:45:00,
2013-12-26 22:46:00,74.2,70.1,30.09,ENE,69,1.0,4.0,87,0.00,,FEW,0.03,0.00,VWS V14.01,2013-12-27 03:46:00,
2013-12-26 22:47:00,74.2,70.1,30.09,ENE,67,1.0,4.0,87,0.00,,FEW,0.03,0.00,VWS V14.01,2013-12-27 03:47:00,
2013-12-26 22:50:00,74.2,70.1,30.09,NE,54,3.0,4.0,87,0.00,,FEW,0.03,0.00,VWS V14.01,2013-12-27 03:50:00,
2013-12-26 22:51:00,74.2,70.1,30.09,NE,45,3.0,4.0,87,0.00,,FEW,0.03,0.00,VWS V14.01,2013-12-27 03:51:00,
2013-12-26 22:52:00,74.2,70.1,30.09,NE,36,0.0,2.0,87,0.00,,FEW,0.03,0.00,VWS V14.01,2013-12-27 03:52:00,
2013-12-26 22:55:00,74.3,70.2,30.09,ENE,57,1.0,3.0,87,0.00,,FEW,0.03,0.00,VWS V14.01,2013-12-27 03:55:00,
2013-12-26 22:56:00,74.3,70.2,30.09,NE,42,3.0,4.0,87,0.00,,FEW,0.03,0.00,VWS V14.01,2013-12-27 03:56:00,
2013-12-26 22:57:00,74.3,70.2,30.09,ENE,67,3.0,4.0,87,0.00,,FEW,0.03,0.00,VWS V14.01,2013-12-27 03:57:00,
2013-12-26 23:00:00,74.3,70.2,30.09,ENE,69,1.0,5.0,87,0.00,,FEW,0.03,0.00,VWS V14.01,2013-12-27 04:00:00,
2013-12-26 23:01:00,74.4,70.3,30.09,NE,51,1.0,5.0,87,0.00,,FEW,0.03,0.00,VWS V14.01,2013-12-27 04:01:00,
2013-12-26 23:02:00,74.4,70.3,30.09,ENE,72,2.0,4.0,87,0.00,,FEW,0.03,0.00,VWS V14.01,2013-12-27 04:02:00,
2013-12-26 23:05:00,74.5,70.4,30.09,ENE,61,0.0,5.0,87,0.00,,FEW,0.03,0.00,VWS V14.01,2013-12-27 04:05:00,
2013-12-26 23:06:00,74.5,70.4,30.09,NE,43,2.0,5.0,87,0.00,,FEW,0.03,0.00,VWS V14.01,2013-12-27 04:06:00,
2013-12-26 23:07:00,74.5,70.4,30.09,ENE,60,3.0,5.0,87,0.00,,FEW,0.03,0.00,VWS V14.01,2013-12-27 04:07:00,
2013-12-26 23:08:00,74.5,70.4,30.09,ENE,60,0.0,5.0,87,0.00,,FEW,0.03,0.00,VWS V14.01,2013-12-27 04:08:00,
2013-12-26 23:10:00,74.5,70.4,30.09,ENE,71,0.0,5.0,87,0.00,,FEW,0.03,0.00,VWS V14.01,2013-12-27 04:10:00,
2013-12-26 23:11:00,74.5,70.4,30.09,ENE,71,1.0,5.0,87,0.00,,FEW,0.03,0.00,VWS V14.01,2013-12-27 04:11:00,
2013-12-26 23:12:00,74.6,70.5,30.09,ENE,71,0.0,1.0,87,0.00,,FEW,0.03,0.00,VWS V14.01,2013-12-27 04:12:00,
2013-12-26 23:13:00,74.6,70.5,30.09,ENE,70,2.0,3.0,87,0.00,,FEW,0.03,0.00,VWS V14.01,2013-12-27 04:13:00,
2013-12-26 23:15:00,74.5,70.4,30.09,ENE,65,1.0,3.0,87,0.00,,FEW,0.03,0.00,VWS V14.01,2013-12-27 04:15:00,
2013-12-26 23:16:00,74.6,70.5,30.09,NE,56,1.0,3.0,87,0.00,,FEW,0.03,0.00,VWS V14.01,2013-12-27 04:16:00,
2013-12-26 23:17:00,74.6,70.8,30.09,ENE,66,0.0,3.0,88,0.00,,FEW,0.03,0.00,VWS V14.01,2013-12-27 04:17:00,
2013-12-26 23:18:00,74.6,70.8,30.09,ENE,66,0.0,3.0,88,0.00,,FEW,0.03,0.00,VWS V14.01,2013-12-27 04:18:00,
2013-12-26 23:20:00,74.6,70.8,30.09,ENE,65,2.0,4.0,88,0.00,,FEW,0.03,0.00,VWS V14.01,2013-12-27 04:20:00,
2013-12-26 23:21:00,74.6,70.8,30.09,ENE,70,1.0,1.0,88,0.00,,FEW,0.03,0.00,VWS V14.01,2013-12-27 04:21:00,
2013-12-26 23:22:00,74.6,70.8,30.09,NE,35,2.0,2.0,88,0.00,,FEW,0.03,0.00,VWS V14.01,2013-12-27 04:22:00,
2013-12-26 23:24:00,74.6,70.8,30.09,ENE,63,2.0,3.0,88,0.00,,FEW,0.03,0.00,VWS V14.01,2013-12-27 04:24:00,
2013-12-26 23:25:00,74.6,70.8,30.09,NE,38,2.0,4.0,88,0.00,,FEW,0.03,0.00,VWS V14.01,2013-12-27 04:25:00,
2013-12-26 23:26:00,74.6,70.8,30.09,NE,45,2.0,7.0,88,0.00,,FEW,0.03,0.00,VWS V14.01,2013-12-27 04:26:00,
2013-12-26 23:27:00,74.6,70.8,30.09,NE,45,2.0,7.0,88,0.00,,FEW,0.03,0.00,VWS V14.01,2013-12-27 04:27:00,
2013-12-26 23:29:00,74.6,70.8,30.09,ENE,63,2.0,7.0,88,0.00,,FEW,0.03,0.00,VWS V14.01,2013-12-27 04:29:00,
2013-12-26 23:30:00,74.6,70.8,30.09,ENE,65,1.0,7.0,88,0.00,,FEW,0.03,0.00,VWS V14.01,2013-12-27 04:30:00,
2013-12-26 23:31:00,74.6,70.8,30.09,ENE,67,2.0,7.0,88,0.00,,FEW,0.03,0.00,VWS V14.01,2013-12-27 04:31:00,
2013-12-26 23:32:00,74.6,70.8,30.09,NNE,22,2.0,3.0,88,0.00,,FEW,0.03,0.00,VWS V14.01,2013-12-27 04:32:00,
2013-12-26 23:33:00,74.6,70.8,30.09,NE,51,2.0,3.0,88,0.00,,FEW,0.03,0.00,VWS V14.01,2013-12-27 04:33:00,
2013-12-26 23:34:00,74.6,70.8,30.09,East,87,2.0,3.0,88,0.00,,FEW,0.03,0.00,VWS V14.01,2013-12-27 04:34:00,
2013-12-26 23:35:00,74.5,70.7,30.09,ENE,71,2.0,3.0,88,0.00,,FEW,0.03,0.00,VWS V14.01,2013-12-27 04:35:00,
2013-12-26 23:37:00,74.6,70.8,30.09,NE,49,2.0,5.0,88,0.00,,FEW,0.03,0.00,VWS V14.01,2013-12-27 04:37:00,
2013-12-26 23:38:00,74.6,70.8,30.09,NE,53,2.0,5.0,88,0.00,,FEW,0.03,0.00,VWS V14.01,2013-12-27 04:38:00,
2013-12-26 23:39:00,74.6,70.8,30.09,East,92,0.0,5.0,88,0.00,,FEW,0.03,0.00,VWS V14.01,2013-12-27 04:39:00,
2013-12-26 23:40:00,74.6,70.8,30.09,NE,40,2.0,5.0,88,0.00,,FEW,0.03,0.00,VWS V14.01,2013-12-27 04:40:00,
2013-12-26 23:42:00,74.5,70.7,30.09,ENE,63,0.0,3.0,88,0.00,,FEW,0.03,0.00,VWS V14.01,2013-12-27 04:42:00,
2013-12-26 23:43:00,74.6,70.8,30.09,ENE,67,1.0,3.0,88,0.00,,FEW,0.03,0.00,VWS V14.01,2013-12-27 04:43:00,
2013-12-26 23:44:00,74.6,70.8,30.09,ENE,71,1.0,3.0,88,0.00,,FEW,0.03,0.00,VWS V14.01,2013-12-27 04:44:00,
2013-12-26 23:46:00,74.6,70.8,30.08,ENE,67,3.0,3.0,88,0.00,,FEW,0.03,0.00,VWS V14.01,2013-12-27 04:46:00,
2013-12-26 23:47:00,74.6,70.8,30.08,NE,51,0.0,4.0,88,0.00,,FEW,0.03,0.00,VWS V14.01,2013-12-27 04:47:00,
2013-12-26 23:48:00,74.6,70.8,30.08,ENE,64,2.0,4.0,88,0.00,,FEW,0.03,0.00,VWS V14.01,2013-12-27 04:48:00,
2013-12-26 23:50:00,74.6,70.8,30.08,East,81,1.0,4.0,88,0.00,,FEW,0.03,0.00,VWS V14.01,2013-12-27 04:50:00,
2013-12-26 23:51:00,74.6,70.8,30.08,East,80,3.0,4.0,88,0.00,,FEW,0.03,0.00,VWS V14.01,2013-12-27 04:51:00,
2013-12-26 23:53:00,74.6,70.8,30.08,East,79,0.0,1.0,88,0.00,,FEW,0.03,0.00,VWS V14.01,2013-12-27 04:53:00,
2013-12-26 23:55:00,74.6,70.8,30.08,ENE,67,2.0,3.0,88,0.00,,FEW,0.03,0.00,VWS V14.01,2013-12-27 04:55:00,
2013-12-26 23:56:00,74.6,70.8,30.08,ENE,67,3.0,4.0,88,0.00,,FEW,0.03,0.00,VWS V14.01,2013-12-27 04:56:00,
2013-12-26 23:58:00,74.6,70.8,30.08,ENE,66,3.0,4.0,88,0.00,,FEW,0.03,0.00,VWS V14.01,2013-12-27 04:58:00,
2013-12-26 23:59:00,74.6,70.8,30.08,ENE,67,0.0,4.0,88,0.00,,FEW,0.03,0.00,VWS V14.01,2013-12-27 04:59:00,